Time,TemperatureF,DewpointF,PressureIn,WindDirection,WindDirectionDegrees,WindSpeedMPH,WindSpeedGustMPH,Humidity,HourlyPrecipIn,Conditions,Clouds,dailyrainin,SoftwareType,DateUTC
2013-04-19 06:30:00,44.6,36.8,29.86,SSE,158,4.4,6.9,74,0.00,CLR,,0.00,WeatherDisplay:10.37,2013-04-19 13:30:00,
2013-04-19 06:35:00,44.6,36.8,29.86,SSW,202,4.8,9.2,74,0.00,CLR,,0.00,WeatherDisplay:10.37,2013-04-19 13:35:00,
2013-04-19 06:40:00,44.4,36.6,29.86,NNE,22,3.5,3.5,74,0.00,CLR,,0.00,WeatherDisplay:10.37,2013-04-19 13:40:00,
2013-04-19 06:41:00,44.6,36.8,29.86,NW,315,3.6,3.8,74,0.00,CLR,,0.00,WeatherDisplay:10.37,2013-04-19 13:41:00,
2013-04-19 06:45:00,44.8,37.0,29.85,SSE,158,3.5,4.6,74,0.00,CLR,,0.00,WeatherDisplay:10.37,2013-04-19 13:45:00,
2013-04-19 06:46:00,44.8,37.0,29.85,SSE,158,3.5,4.6,74,0.00,CLR,,0.00,WeatherDisplay:10.37,2013-04-19 13:46:00,
2013-04-19 06:50:00,45.1,37.0,29.85,West,270,4.1,5.8,73,0.00,CLR,,0.00,WeatherDisplay:10.37,2013-04-19 13:50:00,
2013-04-19 06:51:00,45.0,36.8,29.85,East,90,3.9,3.9,73,0.00,CLR,,0.00,WeatherDisplay:10.37,2013-04-19 13:51:00,
2013-04-19 06:55:00,45.0,36.8,29.85,NNE,22,3.8,4.6,73,0.00,CLR,,0.00,WeatherDisplay:10.37,2013-04-19 13:55:00,
2013-04-19 06:56:00,45.0,36.8,29.85,West,270,3.8,3.8,73,0.00,CLR,,0.00,WeatherDisplay:10.37,2013-04-19 13:56:00,
2013-04-19 07:00:00,45.0,36.8,29.85,West,270,3.2,3.5,73,0.00,CLR,,0.00,WeatherDisplay:10.37,2013-04-19 14:00:00,
2013-04-19 07:01:00,45.0,36.8,29.85,SE,135,3.5,3.5,73,0.00,CLR,,0.00,WeatherDisplay:10.37,2013-04-19 14:01:00,
2013-04-19 07:05:00,44.8,36.7,29.85,NNW,338,2.9,4.6,73,0.00,CLR,,0.00,WeatherDisplay:10.37,2013-04-19 14:05:00,
2013-04-19 07:06:00,44.8,36.7,29.85,NNW,338,2.9,4.6,73,0.00,CLR,,0.00,WeatherDisplay:10.37,2013-04-19 14:06:00,
2013-04-19 07:10:00,45.1,37.0,29.85,ESE,112,2.6,4.6,73,0.00,CLR,,0.00,WeatherDisplay:10.37,2013-04-19 14:10:00,
2013-04-19 07:11:00,45.1,37.0,29.85,ESE,112,2.6,4.6,73,0.00,CLR,,0.00,WeatherDisplay:10.37,2013-04-19 14:11:00,
2013-04-19 07:15:00,45.3,37.2,29.85,West,270,3.2,6.9,73,0.00,CLR,,0.00,WeatherDisplay:10.37,2013-04-19 14:15:00,
2013-04-19 07:16:00,45.3,37.2,29.85,West,270,3.2,4.6,73,0.00,CLR,,0.00,WeatherDisplay:10.37,2013-04-19 14:16:00,
2013-04-19 07:17:00,45.5,37.0,29.85,ESE,112,3.1,4.7,72,0.00,CLR,,0.00,WeatherDisplay:10.37,2013-04-19 14:17:00,
2013-04-19 07:18:00,45.7,37.2,29.85,NE,45,3.6,4.6,72,0.00,CLR,,0.00,WeatherDisplay:10.37,2013-04-19 14:18:00,
2013-04-19 07:20:00,45.7,37.2,29.85,SSW,202,3.6,6.9,72,0.00,CLR,,0.00,WeatherDisplay:10.37,2013-04-19 14:20:00,
2013-04-19 07:21:00,45.7,37.2,29.85,SSW,202,3.6,6.9,72,0.00,CLR,,0.00,WeatherDisplay:10.37,2013-04-19 14:21:00,
2013-04-19 07:22:00,45.7,37.2,29.85,SSW,202,3.6,6.9,72,0.00,CLR,,0.00,WeatherDisplay:10.37,2013-04-19 14:22:00,
2013-04-19 07:24:00,45.7,37.2,29.84,NNE,22,3.6,4.6,72,0.00,CLR,,0.00,WeatherDisplay:10.37,2013-04-19 14:24:00,
2013-04-19 07:25:00,45.9,37.3,29.84,ENE,68,3.3,4.6,72,0.00,CLR,,0.00,WeatherDisplay:10.37,2013-04-19 14:25:00,
2013-04-19 07:26:00,46.0,37.2,29.84,West,270,3.6,6.3,71,0.00,CLR,,0.00,WeatherDisplay:10.37,2013-04-19 14:26:00,
2013-04-19 07:27:00,46.0,37.2,29.84,West,270,3.6,6.9,71,0.00,CLR,,0.00,WeatherDisplay:10.37,2013-04-19 14:27:00,
2013-04-19 07:29:00,46.2,37.3,29.84,ESE,112,4.1,6.9,71,0.00,CLR,,0.00,WeatherDisplay:10.37,2013-04-19 14:29:00,
2013-04-19 07:30:00,46.4,37.1,29.84,NE,45,4.3,6.9,70,0.00,CLR,,0.00,WeatherDisplay:10.37,2013-04-19 14:30:00,
2013-04-19 07:32:00,46.6,37.3,29.84,NE,45,4.3,4.9,70,0.00,CLR,,0.00,WeatherDisplay:10.37,2013-04-19 14:32:00,
2013-04-19 07:34:00,46.6,37.3,29.84,South,180,4.4,4.6,70,0.00,CLR,,0.00,WeatherDisplay:10.37,2013-04-19 14:34:00,
2013-04-19 07:35:00,46.8,37.5,29.84,NE,45,4.7,5.8,70,0.00,CLR,,0.00,WeatherDisplay:10.37,2013-04-19 14:35:00,
2013-04-19 07:37:00,46.8,37.5,29.84,West,270,4.9,5.8,70,0.00,CLR,,0.00,WeatherDisplay:10.37,2013-04-19 14:37:00,
2013-04-19 07:39:00,46.8,37.5,29.84,NE,45,4.3,5.8,70,0.00,CLR,,0.00,WeatherDisplay:10.37,2013-04-19 14:39:00,
2013-04-19 07:40:00,46.8,37.5,29.84,SE,135,4.1,9.2,70,0.00,CLR,,0.00,WeatherDisplay:10.37,2013-04-19 14:40:00,
2013-04-19 07:42:00,46.9,37.7,29.84,SSE,158,3.9,9.2,70,0.00,CLR,,0.00,WeatherDisplay:10.37,2013-04-19 14:42:00,
2013-04-19 07:44:00,46.9,37.7,29.84,SSE,158,3.9,4.7,70,0.00,CLR,,0.00,WeatherDisplay:10.37,2013-04-19 14:44:00,
2013-04-19 07:46:00,46.9,37.7,29.84,South,180,3.7,3.7,70,0.00,CLR,,0.00,WeatherDisplay:10.37,2013-04-19 14:46:00,
2013-04-19 07:47:00,47.1,37.5,29.84,SSE,158,3.8,5.8,69,0.00,CLR,,0.00,WeatherDisplay:10.37,2013-04-19 14:47:00,
2013-04-19 07:48:00,47.1,37.5,29.84,SSE,158,3.8,5.8,69,0.00,CLR,,0.00,WeatherDisplay:10.37,2013-04-19 14:48:00,
2013-04-19 07:49:00,47.3,37.6,29.84,SE,135,4.1,13.8,69,0.00,CLR,,0.00,WeatherDisplay:10.37,2013-04-19 14:49:00,
2013-04-19 07:51:00,47.3,37.6,29.84,NE,45,4.4,13.8,69,0.00,CLR,,0.00,WeatherDisplay:10.37,2013-04-19 14:51:00,
2013-04-19 07:52:00,47.5,37.4,29.84,WSW,248,4.4,6.9,68,0.00,CLR,,0.00,WeatherDisplay:10.37,2013-04-19 14:52:00,
2013-04-19 07:53:00,47.5,37.4,29.84,WSW,248,4.4,10.4,68,0.00,CLR,,0.00,WeatherDisplay:10.37,2013-04-19 14:53:00,
2013-04-19 07:55:00,47.5,37.4,29.84,WNW,292,4.5,10.4,68,0.00,CLR,,0.00,WeatherDisplay:10.37,2013-04-19 14:55:00,
2013-04-19 07:56:00,47.7,37.6,29.84,SE,135,4.6,5.8,68,0.00,CLR,,0.00,WeatherDisplay:10.37,2013-04-19 14:56:00,
2013-04-19 07:57:00,47.7,37.6,29.84,SE,135,4.6,6.9,68,0.00,CLR,,0.00,WeatherDisplay:10.37,2013-04-19 14:57:00,
2013-04-19 07:58:00,47.7,37.6,29.84,SE,135,4.6,6.9,68,0.00,CLR,,0.00,WeatherDisplay:10.37,2013-04-19 14:58:00,
2013-04-19 08:00:00,47.8,37.4,29.84,SSE,161,5.0,7.0,67,0.00,CLR,CLR,0.00,WeatherDisplay:10.37,2013-04-19 15:00:00,
2013-04-19 08:02:00,48.0,37.6,29.84,South,180,4.4,4.6,67,0.00,CLR,,0.00,WeatherDisplay:10.37,2013-04-19 15:02:00,
2013-04-19 08:03:00,48.0,37.6,29.85,South,180,4.4,8.1,67,0.00,CLR,,0.00,WeatherDisplay:10.37,2013-04-19 15:03:00,
2013-04-19 08:04:00,48.0,37.2,29.85,SSE,158,4.7,8.1,66,0.00,CLR,,0.00,WeatherDisplay:10.37,2013-04-19 15:04:00,
2013-04-19 08:05:00,48.0,37.2,29.85,SSE,158,4.7,6.2,66,0.00,CLR,,0.00,WeatherDisplay:10.37,2013-04-19 15:05:00,
2013-04-19 08:07:00,48.0,37.2,29.85,WSW,248,4.5,5.8,66,0.00,CLR,,0.00,WeatherDisplay:10.37,2013-04-19 15:07:00,
2013-04-19 08:08:00,48.2,37.0,29.85,SW,225,4.6,6.9,65,0.00,CLR,,0.00,WeatherDisplay:10.37,2013-04-19 15:08:00,
2013-04-19 08:09:00,48.2,37.0,29.85,SW,225,4.6,6.9,65,0.00,CLR,,0.00,WeatherDisplay:10.37,2013-04-19 15:09:00,
2013-04-19 08:10:00,48.2,37.4,29.85,South,180,4.9,8.1,66,0.00,CLR,,0.00,WeatherDisplay:10.37,2013-04-19 15:10:00,
2013-04-19 08:12:00,48.2,37.4,29.85,SE,135,5.5,8.1,66,0.00,CLR,,0.00,WeatherDisplay:10.37,2013-04-19 15:12:00,
2013-04-19 08:13:00,48.2,37.4,29.85,SE,135,5.5,5.8,66,0.00,CLR,,0.00,WeatherDisplay:10.37,2013-04-19 15:13:00,
2013-04-19 08:14:00,48.0,37.2,29.85,South,180,5.2,5.8,66,0.00,CLR,,0.00,WeatherDisplay:10.37,2013-04-19 15:14:00,
2013-04-19 08:15:00,48.0,37.2,29.85,South,180,5.2,5.2,66,0.00,CLR,,0.00,WeatherDisplay:10.37,2013-04-19 15:15:00,
2013-04-19 08:17:00,48.0,37.2,29.85,NNE,22,5.1,5.2,66,0.00,CLR,,0.00,WeatherDisplay:10.37,2013-04-19 15:17:00,
2013-04-19 08:18:00,48.0,37.2,29.85,ESE,112,5.3,5.3,66,0.00,CLR,,0.00,WeatherDisplay:10.37,2013-04-19 15:18:00,
2013-04-19 08:19:00,48.0,37.2,29.85,ESE,112,5.3,5.3,66,0.00,CLR,,0.00,WeatherDisplay:10.37,2013-04-19 15:19:00,
2013-04-19 08:20:00,48.0,37.2,29.85,North,0,5.2,7.6,66,0.00,CLR,,0.00,WeatherDisplay:10.37,2013-04-19 15:20:00,
2013-04-19 08:23:00,48.2,37.4,29.85,SSE,158,4.9,11.5,66,0.00,CLR,,0.00,WeatherDisplay:10.37,2013-04-19 15:23:00,
2013-04-19 08:24:00,48.2,37.4,29.85,West,270,4.8,11.5,66,0.00,CLR,,0.00,WeatherDisplay:10.37,2013-04-19 15:24:00,
2013-04-19 08:25:00,48.2,37.4,29.85,West,270,4.8,9.2,66,0.00,CLR,,0.00,WeatherDisplay:10.37,2013-04-19 15:25:00,
2013-04-19 08:28:00,48.2,37.4,29.85,NNE,22,5.2,6.9,66,0.00,CLR,,0.00,WeatherDisplay:10.37,2013-04-19 15:28:00,
2013-04-19 08:30:00,48.2,37.4,29.85,NNE,22,5.2,5.8,66,0.00,CLR,,0.00,WeatherDisplay:10.37,2013-04-19 15:30:00,
2013-04-19 08:31:00,48.2,37.4,29.85,South,180,5.2,5.2,66,0.00,CLR,,0.00,WeatherDisplay:10.37,2013-04-19 15:31:00,
2013-04-19 08:33:00,48.0,37.2,29.85,South,180,5.1,5.8,66,0.00,CLR,,0.00,WeatherDisplay:10.37,2013-04-19 15:33:00,
2013-04-19 08:35:00,48.0,37.2,29.85,SSE,158,5.2,6.9,66,0.00,CLR,,0.00,WeatherDisplay:10.37,2013-04-19 15:35:00,
2013-04-19 08:36:00,47.8,37.4,29.85,NNE,22,4.9,6.9,67,0.00,CLR,,0.00,WeatherDisplay:10.37,2013-04-19 15:36:00,
2013-04-19 08:38:00,47.8,37.4,29.85,SE,135,4.9,6.9,67,0.00,CLR,,0.00,WeatherDisplay:10.37,2013-04-19 15:38:00,
2013-04-19 08:40:00,47.8,37.4,29.85,NW,315,4.9,6.9,67,0.00,CLR,,0.00,WeatherDisplay:10.37,2013-04-19 15:40:00,
2013-04-19 08:41:00,47.8,37.4,29.85,NW,315,4.9,6.9,67,0.00,CLR,,0.00,WeatherDisplay:10.37,2013-04-19 15:41:00,
2013-04-19 08:43:00,47.8,37.8,29.86,South,180,4.9,5.1,68,0.00,CLR,,0.00,WeatherDisplay:10.37,2013-04-19 15:43:00,
2013-04-19 08:45:00,47.8,37.8,29.86,NNW,338,4.5,4.5,68,0.00,CLR,,0.00,WeatherDisplay:10.37,2013-04-19 15:45:00,
2013-04-19 08:46:00,47.8,37.8,29.86,ENE,68,3.9,3.9,68,0.00,CLR,,0.00,WeatherDisplay:10.37,2013-04-19 15:46:00,
2013-04-19 08:48:00,47.8,37.8,29.86,SSE,158,3.8,3.8,68,0.00,CLR,,0.00,WeatherDisplay:10.37,2013-04-19 15:48:00,
2013-04-19 08:50:00,47.8,37.8,29.86,NNW,338,3.8,4.6,68,0.00,CLR,,0.00,WeatherDisplay:10.37,2013-04-19 15:50:00,
2013-04-19 08:51:00,47.8,37.8,29.86,NNW,338,3.8,4.6,68,0.00,CLR,,0.00,WeatherDisplay:10.37,2013-04-19 15:51:00,
2013-04-19 08:53:00,47.7,38.0,29.86,NW,315,3.6,3.6,69,0.00,CLR,,0.00,WeatherDisplay:10.37,2013-04-19 15:53:00,
2013-04-19 08:54:00,47.7,38.0,29.86,NNW,338,3.6,3.6,69,0.00,CLR,,0.00,WeatherDisplay:10.37,2013-04-19 15:54:00,
2013-04-19 08:55:00,47.7,38.0,29.86,NNW,338,3.6,4.6,69,0.00,CLR,,0.00,WeatherDisplay:10.37,2013-04-19 15:55:00,
2013-04-19 08:56:00,47.7,38.0,29.86,NW,315,3.7,6.0,69,0.00,CLR,,0.00,WeatherDisplay:10.37,2013-04-19 15:56:00,
2013-04-19 08:57:00,47.7,38.0,29.86,NW,315,3.7,6.0,69,0.00,CLR,,0.00,WeatherDisplay:10.37,2013-04-19 15:57:00,
2013-04-19 08:58:00,47.7,38.0,29.86,SE,135,3.7,5.8,69,0.00,CLR,,0.00,WeatherDisplay:10.37,2013-04-19 15:58:00,
2013-04-19 08:59:00,47.7,38.0,29.86,SE,135,3.7,5.8,69,0.00,CLR,,0.00,WeatherDisplay:10.37,2013-04-19 15:59:00,
2013-04-19 09:00:00,47.8,37.8,29.86,SE,135,3.9,6.9,68,0.00,CLR,,0.00,WeatherDisplay:10.37,2013-04-19 16:00:00,
2013-04-19 09:01:00,47.8,37.8,29.86,SE,135,3.9,6.9,68,0.00,CLR,,0.00,WeatherDisplay:10.37,2013-04-19 16:01:00,
2013-04-19 09:02:00,47.8,37.8,29.85,SE,135,4.1,8.1,68,0.00,CLR,,0.00,WeatherDisplay:10.37,2013-04-19 16:02:00,
2013-04-19 09:04:00,47.8,37.8,29.85,SE,135,4.1,8.1,68,0.00,CLR,,0.00,WeatherDisplay:10.37,2013-04-19 16:04:00,
2013-04-19 09:05:00,47.8,37.8,29.85,NNW,338,4.3,5.8,68,0.00,CLR,,0.00,WeatherDisplay:10.37,2013-04-19 16:05:00,
2013-04-19 09:07:00,47.8,37.8,29.85,SSE,158,4.3,4.6,68,0.00,CLR,,0.00,WeatherDisplay:10.37,2013-04-19 16:07:00,
2013-04-19 09:09:00,48.0,38.0,29.85,West,270,4.4,4.6,68,0.00,CLR,,0.00,WeatherDisplay:10.37,2013-04-19 16:09:00,
2013-04-19 09:10:00,48.2,38.1,29.85,ESE,112,4.4,4.4,68,0.00,CLR,,0.00,WeatherDisplay:10.37,2013-04-19 16:10:00,
2013-04-19 09:12:00,48.4,38.3,29.85,North,0,4.0,4.0,68,0.00,CLR,,0.00,WeatherDisplay:10.37,2013-04-19 16:12:00,
2013-04-19 09:14:00,48.4,37.9,29.85,East,90,3.7,6.9,67,0.00,CLR,,0.00,WeatherDisplay:10.37,2013-04-19 16:14:00,
2013-04-19 09:15:00,39.4,31.4,29.91,SE,142,1.0,4.0,73,0.00,CLR,CLR,0.00,WeatherDisplay:10.37,2013-04-19 16:15:00,
2013-04-19 09:16:00,48.4,37.9,29.85,East,90,3.7,6.9,67,0.00,CLR,,0.00,WeatherDisplay:10.37,2013-04-19 16:16:00,
2013-04-19 09:17:00,48.4,37.9,29.85,North,0,3.7,5.8,67,0.00,CLR,,0.00,WeatherDisplay:10.37,2013-04-19 16:17:00,
2013-04-19 09:18:00,48.4,37.5,29.85,West,270,3.8,5.8,66,0.00,CLR,,0.00,WeatherDisplay:10.37,2013-04-19 16:18:00,
2013-04-19 09:19:00,48.4,37.5,29.85,West,270,3.8,3.8,66,0.00,CLR,,0.00,WeatherDisplay:10.37,2013-04-19 16:19:00,
2013-04-19 09:20:00,48.4,37.5,29.85,NNE,22,3.7,5.8,66,0.00,CLR,,0.00,WeatherDisplay:10.37,2013-04-19 16:20:00,
2013-04-19 09:21:00,48.4,37.5,29.85,NNE,22,3.7,5.8,66,0.00,CLR,,0.00,WeatherDisplay:10.37,2013-04-19 16:21:00,
2013-04-19 09:23:00,48.7,37.9,29.85,NNE,22,3.8,7.0,66,0.00,CLR,,0.00,WeatherDisplay:10.37,2013-04-19 16:23:00,
2013-04-19 09:24:00,48.7,37.9,29.85,SSE,158,4.0,7.1,66,0.00,CLR,,0.00,WeatherDisplay:10.37,2013-04-19 16:24:00,
2013-04-19 09:25:00,48.7,37.9,29.85,SSE,158,4.0,6.9,66,0.00,CLR,,0.00,WeatherDisplay:10.37,2013-04-19 16:25:00,
2013-04-19 09:26:00,48.7,37.9,29.85,NNW,338,3.9,6.9,66,0.00,CLR,,0.00,WeatherDisplay:10.37,2013-04-19 16:26:00,
2013-04-19 09:28:00,48.9,38.1,29.85,NNE,22,3.8,6.9,66,0.00,CLR,,0.00,WeatherDisplay:10.37,2013-04-19 16:28:00,
2013-04-19 09:30:00,48.9,38.1,29.85,NNE,22,3.8,6.9,66,0.00,CLR,,0.00,WeatherDisplay:10.37,2013-04-19 16:30:00,
2013-04-19 09:31:00,48.9,37.7,29.85,ESE,112,4.0,6.9,65,0.00,CLR,,0.00,WeatherDisplay:10.37,2013-04-19 16:31:00,
2013-04-19 09:33:00,48.7,37.1,29.85,West,270,4.5,12.7,64,0.00,CLR,,0.00,WeatherDisplay:10.37,2013-04-19 16:33:00,
2013-04-19 09:34:00,48.7,37.1,29.85,West,270,4.5,12.7,64,0.00,CLR,,0.00,WeatherDisplay:10.37,2013-04-19 16:34:00,
2013-04-19 09:35:00,48.6,37.3,29.85,ESE,112,4.7,12.7,65,0.00,CLR,,0.00,WeatherDisplay:10.37,2013-04-19 16:35:00,
2013-04-19 09:36:00,48.6,37.3,29.85,ESE,112,4.7,4.7,65,0.00,CLR,,0.00,WeatherDisplay:10.37,2013-04-19 16:36:00,
2013-04-19 09:37:00,48.6,37.3,29.85,NNE,22,4.4,4.6,65,0.00,CLR,,0.00,WeatherDisplay:10.37,2013-04-19 16:37:00,
2013-04-19 09:38:00,48.6,37.3,29.85,SE,135,4.6,4.6,65,0.00,CLR,,0.00,WeatherDisplay:10.37,2013-04-19 16:38:00,
2013-04-19 09:39:00,48.6,37.3,29.85,SE,135,4.6,4.9,65,0.00,CLR,,0.00,WeatherDisplay:10.37,2013-04-19 16:39:00,
2013-04-19 09:40:00,48.6,36.9,29.85,ESE,112,4.9,12.8,64,0.00,CLR,,0.00,WeatherDisplay:10.37,2013-04-19 16:40:00,
2013-04-19 09:41:00,48.6,36.9,29.85,ESE,112,4.9,12.8,64,0.00,CLR,,0.00,WeatherDisplay:10.37,2013-04-19 16:41:00,
2013-04-19 09:42:00,48.7,36.7,29.84,SSE,158,5.1,12.7,63,0.00,CLR,,0.00,WeatherDisplay:10.37,2013-04-19 16:42:00,
2013-04-19 09:44:00,48.9,36.9,29.84,SE,135,4.7,6.9,63,0.00,CLR,,0.00,WeatherDisplay:10.37,2013-04-19 16:44:00,
2013-04-19 09:45:00,48.9,36.9,29.84,SE,135,4.7,6.9,63,0.00,CLR,,0.00,WeatherDisplay:10.37,2013-04-19 16:45:00,
2013-04-19 09:47:00,49.1,37.0,29.84,NW,315,4.9,5.8,63,0.00,CLR,,0.00,WeatherDisplay:10.37,2013-04-19 16:47:00,
2013-04-19 09:49:00,48.9,36.9,29.84,SW,225,5.5,5.8,63,0.00,CLR,,0.00,WeatherDisplay:10.37,2013-04-19 16:49:00,
2013-04-19 09:50:00,48.9,36.9,29.84,SW,225,5.5,5.8,63,0.00,CLR,,0.00,WeatherDisplay:10.37,2013-04-19 16:50:00,
2013-04-19 09:52:00,48.6,36.5,29.84,South,180,4.9,8.1,63,0.00,CLR,,0.00,WeatherDisplay:10.37,2013-04-19 16:52:00,
2013-04-19 09:53:00,48.6,36.5,29.84,South,180,4.9,8.1,63,0.00,CLR,,0.00,WeatherDisplay:10.37,2013-04-19 16:53:00,
2013-04-19 09:54:00,48.4,36.4,29.84,ESE,112,4.9,6.9,63,0.00,CLR,,0.00,WeatherDisplay:10.37,2013-04-19 16:54:00,
2013-04-19 09:55:00,48.4,36.4,29.84,ESE,112,4.9,6.9,63,0.00,CLR,,0.00,WeatherDisplay:10.37,2013-04-19 16:55:00,
2013-04-19 09:57:00,48.6,36.9,29.84,East,90,4.9,5.1,64,0.00,CLR,,0.00,WeatherDisplay:10.37,2013-04-19 16:57:00,
2013-04-19 09:58:00,49.1,37.0,29.84,NW,315,4.9,7.1,63,0.00,CLR,,0.00,WeatherDisplay:10.37,2013-04-19 16:58:00,
2013-04-19 10:00:00,49.1,37.0,29.84,NW,315,4.9,6.9,63,0.00,CLR,,0.00,WeatherDisplay:10.37,2013-04-19 17:00:00,
2013-04-19 10:02:00,50.9,37.9,29.84,NNW,338,4.9,9.3,61,0.00,CLR,,0.00,WeatherDisplay:10.37,2013-04-19 17:02:00,
2013-04-19 10:03:00,50.9,37.9,29.84,NNW,338,4.9,9.3,61,0.00,CLR,,0.00,WeatherDisplay:10.37,2013-04-19 17:03:00,
2013-04-19 10:05:00,50.9,37.5,29.84,ENE,68,5.1,8.1,60,0.00,CLR,,0.00,WeatherDisplay:10.37,2013-04-19 17:05:00,
2013-04-19 10:08:00,50.5,36.7,29.84,SSE,158,4.9,10.4,59,0.00,CLR,,0.00,WeatherDisplay:10.37,2013-04-19 17:08:00,
2013-04-19 10:10:00,51.4,37.6,29.84,South,180,5.2,9.2,59,0.00,CLR,,0.00,WeatherDisplay:10.37,2013-04-19 17:10:00,
2013-04-19 10:11:00,51.4,37.6,29.84,South,180,5.2,9.2,59,0.00,CLR,,0.00,WeatherDisplay:10.37,2013-04-19 17:11:00,
2013-04-19 10:13:00,51.6,37.7,29.84,South,180,5.4,8.1,59,0.00,CLR,,0.00,WeatherDisplay:10.37,2013-04-19 17:13:00,
2013-04-19 10:14:00,51.6,37.7,29.84,South,180,5.4,8.1,59,0.00,CLR,,0.00,WeatherDisplay:10.37,2013-04-19 17:14:00,
2013-04-19 10:15:00,51.8,37.9,29.84,North,0,5.5,6.9,59,0.00,CLR,,0.00,WeatherDisplay:10.37,2013-04-19 17:15:00,
2013-04-19 10:16:00,51.8,37.5,29.84,North,0,5.5,6.9,58,0.00,CLR,,0.00,WeatherDisplay:10.37,2013-04-19 17:16:00,
2013-04-19 10:18:00,51.8,37.5,29.84,WSW,248,6.2,15.0,58,0.00,CLR,,0.00,WeatherDisplay:10.37,2013-04-19 17:18:00,
2013-04-19 10:19:00,51.8,37.5,29.84,WSW,248,6.2,15.0,58,0.00,CLR,,0.00,WeatherDisplay:10.37,2013-04-19 17:19:00,
2013-04-19 10:20:00,52.3,38.0,29.84,NNW,338,6.3,8.3,58,0.00,CLR,,0.00,WeatherDisplay:10.37,2013-04-19 17:20:00,
2013-04-19 10:21:00,52.3,38.0,29.84,NNW,338,6.3,8.1,58,0.00,CLR,,0.00,WeatherDisplay:10.37,2013-04-19 17:21:00,
2013-04-19 10:24:00,52.5,37.7,29.83,SE,135,6.6,6.6,57,0.00,CLR,,0.00,WeatherDisplay:10.37,2013-04-19 17:24:00,
2013-04-19 10:25:00,53.1,38.7,29.83,South,180,6.2,6.9,58,0.00,CLR,,0.00,WeatherDisplay:10.37,2013-04-19 17:25:00,
2013-04-19 10:26:00,53.2,37.9,29.83,SE,135,6.2,8.1,56,0.00,CLR,,0.00,WeatherDisplay:10.37,2013-04-19 17:26:00,
2013-04-19 10:29:00,53.6,38.3,29.83,East,90,5.4,8.1,56,0.00,CLR,,0.00,WeatherDisplay:10.37,2013-04-19 17:29:00,
2013-04-19 10:30:00,54.0,38.6,29.83,SSE,158,5.8,11.5,56,0.00,CLR,,0.00,WeatherDisplay:10.37,2013-04-19 17:30:00,
2013-04-19 10:31:00,54.0,38.6,29.83,SSE,158,5.8,11.5,56,0.00,CLR,,0.00,WeatherDisplay:10.37,2013-04-19 17:31:00,
2013-04-19 10:34:00,53.8,38.0,29.83,SE,135,6.4,16.3,55,0.00,CLR,,0.00,WeatherDisplay:10.37,2013-04-19 17:34:00,
2013-04-19 10:35:00,53.8,38.0,29.83,SE,126,7.0,16.0,55,0.00,CLR,CLR,0.00,WeatherDisplay:10.37,2013-04-19 17:35:00,
2013-04-19 10:36:00,53.8,38.0,29.83,ESE,112,6.8,16.1,55,0.00,CLR,,0.00,WeatherDisplay:10.37,2013-04-19 17:36:00,
2013-04-19 10:39:00,54.1,38.3,29.83,ESE,112,7.4,15.0,55,0.00,CLR,,0.00,WeatherDisplay:10.37,2013-04-19 17:39:00,
2013-04-19 10:40:00,54.0,38.1,29.83,NNE,22,7.9,15.0,55,0.00,CLR,,0.00,WeatherDisplay:10.37,2013-04-19 17:40:00,
2013-04-19 10:41:00,54.0,38.1,29.83,NNE,22,7.9,15.0,55,0.00,CLR,,0.00,WeatherDisplay:10.37,2013-04-19 17:41:00,
2013-04-19 10:44:00,53.8,38.0,29.84,South,180,7.1,15.0,55,0.00,CLR,,0.00,WeatherDisplay:10.37,2013-04-19 17:44:00,
2013-04-19 10:45:00,53.8,38.0,29.84,South,180,7.1,15.0,55,0.00,CLR,,0.00,WeatherDisplay:10.37,2013-04-19 17:45:00,
2013-04-19 10:46:00,53.8,38.4,29.84,SE,135,7.2,7.2,56,0.00,CLR,,0.00,WeatherDisplay:10.37,2013-04-19 17:46:00,
2013-04-19 10:49:00,54.3,38.5,29.84,East,90,7.4,11.5,55,0.00,CLR,,0.00,WeatherDisplay:10.37,2013-04-19 17:49:00,
2013-04-19 10:50:00,54.1,38.3,29.84,SE,135,6.7,11.5,55,0.00,CLR,,0.00,WeatherDisplay:10.37,2013-04-19 17:50:00,
2013-04-19 10:51:00,54.1,38.3,29.84,SE,135,6.7,11.5,55,0.00,CLR,,0.00,WeatherDisplay:10.37,2013-04-19 17:51:00,
2013-04-19 10:54:00,54.1,38.8,29.84,SW,225,5.9,9.2,56,0.00,CLR,,0.00,WeatherDisplay:10.37,2013-04-19 17:54:00,
2013-04-19 10:55:00,54.1,38.8,29.84,SW,225,5.9,9.2,56,0.00,CLR,,0.00,WeatherDisplay:10.37,2013-04-19 17:55:00,
2013-04-19 10:56:00,54.7,38.8,29.84,SE,135,5.8,10.4,55,0.00,CLR,,0.00,WeatherDisplay:10.37,2013-04-19 17:56:00,
2013-04-19 10:57:00,54.7,38.8,29.84,SE,135,5.8,6.9,55,0.00,CLR,,0.00,WeatherDisplay:10.37,2013-04-19 17:57:00,
2013-04-19 10:59:00,54.3,38.9,29.84,South,180,5.5,10.4,56,0.00,CLR,,0.00,WeatherDisplay:10.37,2013-04-19 17:59:00,
2013-04-19 11:00:00,54.3,38.9,29.84,South,180,4.9,5.8,56,0.00,CLR,,0.00,WeatherDisplay:10.37,2013-04-19 18:00:00,
2013-04-19 11:02:00,54.3,38.9,29.84,South,180,4.9,6.9,56,0.00,CLR,,0.00,WeatherDisplay:10.37,2013-04-19 18:02:00,
2013-04-19 11:04:00,55.4,39.0,29.84,WNW,292,4.4,4.6,54,0.00,CLR,,0.00,WeatherDisplay:10.37,2013-04-19 18:04:00,
2013-04-19 11:05:00,33.6,29.3,29.93,North,354,0.0,0.0,84,0.00,CLR,CLR,0.00,WeatherDisplay:10.37,2013-04-19 18:05:00,
2013-04-19 11:06:00,55.4,39.0,29.84,SSE,158,4.4,4.6,54,0.00,CLR,,0.00,WeatherDisplay:10.37,2013-04-19 18:06:00,
2013-04-19 11:07:00,55.4,39.0,29.84,SSE,158,4.4,4.6,54,0.00,CLR,,0.00,WeatherDisplay:10.37,2013-04-19 18:07:00,
2013-04-19 11:09:00,55.0,38.7,29.84,NNW,338,4.4,6.9,54,0.00,CLR,,0.00,WeatherDisplay:10.37,2013-04-19 18:09:00,
2013-04-19 11:10:00,33.4,28.8,29.93,SE,135,0.0,0.0,83,0.00,CLR,CLR,0.00,WeatherDisplay:10.37,2013-04-19 18:10:00,
2013-04-19 11:11:00,55.4,38.5,29.84,NNE,22,4.1,6.9,53,0.00,CLR,,0.00,WeatherDisplay:10.37,2013-04-19 18:11:00,
2013-04-19 11:12:00,55.8,38.9,29.84,East,90,4.3,9.2,53,0.00,CLR,,0.00,WeatherDisplay:10.37,2013-04-19 18:12:00,
2013-04-19 11:13:00,55.8,38.9,29.84,East,90,4.3,6.9,53,0.00,CLR,,0.00,WeatherDisplay:10.37,2013-04-19 18:13:00,
2013-04-19 11:15:00,56.1,39.2,29.84,NE,45,4.4,9.2,53,0.00,CLR,,0.00,WeatherDisplay:10.37,2013-04-19 18:15:00,
2013-04-19 11:17:00,56.1,38.2,29.84,SW,225,4.9,10.4,51,0.00,CLR,,0.00,WeatherDisplay:10.37,2013-04-19 18:17:00,
2013-04-19 11:18:00,56.1,38.2,29.84,SW,225,4.9,10.4,51,0.00,CLR,,0.00,WeatherDisplay:10.37,2013-04-19 18:18:00,
2013-04-19 11:20:00,55.4,37.1,29.84,SE,135,5.3,5.3,50,0.00,CLR,,0.00,WeatherDisplay:10.37,2013-04-19 18:20:00,
2013-04-19 11:22:00,55.4,37.6,29.84,NNW,338,5.6,5.6,51,0.00,CLR,,0.00,WeatherDisplay:10.37,2013-04-19 18:22:00,
2013-04-19 11:23:00,55.4,37.6,29.84,NNW,338,5.6,5.6,51,0.00,CLR,,0.00,WeatherDisplay:10.37,2013-04-19 18:23:00,
2013-04-19 11:24:00,55.4,37.6,29.84,NNW,338,5.6,5.6,51,0.00,CLR,,0.00,WeatherDisplay:10.37,2013-04-19 18:24:00,
2013-04-19 11:25:00,55.0,38.2,29.84,NW,315,5.3,6.9,53,0.00,CLR,,0.00,WeatherDisplay:10.37,2013-04-19 18:25:00,
2013-04-19 11:27:00,54.7,38.4,29.84,SSE,158,5.5,8.1,54,0.00,CLR,,0.00,WeatherDisplay:10.37,2013-04-19 18:27:00,
2013-04-19 11:28:00,55.0,38.7,29.84,NNE,22,5.2,8.1,54,0.00,CLR,,0.00,WeatherDisplay:10.37,2013-04-19 18:28:00,
2013-04-19 11:29:00,55.0,38.7,29.84,NNE,22,5.2,8.1,54,0.00,CLR,,0.00,WeatherDisplay:10.37,2013-04-19 18:29:00,
2013-04-19 11:30:00,32.5,27.7,29.91,NE,34,0.0,0.0,82,0.00,CLR,CLR,0.00,WeatherDisplay:10.37,2013-04-19 18:30:00,
2013-04-19 11:31:00,55.0,38.7,29.84,SSE,158,5.1,6.9,54,0.00,CLR,,0.00,WeatherDisplay:10.37,2013-04-19 18:31:00,
2013-04-19 11:32:00,55.2,38.9,29.84,SSE,158,5.1,6.9,54,0.00,CLR,,0.00,WeatherDisplay:10.37,2013-04-19 18:32:00,
2013-04-19 11:33:00,55.2,38.9,29.84,SSE,158,5.1,8.1,54,0.00,CLR,,0.00,WeatherDisplay:10.37,2013-04-19 18:33:00,
2013-04-19 11:34:00,56.1,39.2,29.84,North,0,5.2,8.1,53,0.00,CLR,,0.00,WeatherDisplay:10.37,2013-04-19 18:34:00,
2013-04-19 11:35:00,32.4,27.2,29.91,NE,34,0.0,0.0,81,0.00,CLR,CLR,0.00,WeatherDisplay:10.37,2013-04-19 18:35:00,
2013-04-19 11:36:00,56.1,39.2,29.84,North,0,5.2,8.1,53,0.00,CLR,,0.00,WeatherDisplay:10.37,2013-04-19 18:36:00,
2013-04-19 11:37:00,56.8,39.9,29.84,NW,315,4.9,6.9,53,0.00,CLR,,0.00,WeatherDisplay:10.37,2013-04-19 18:37:00,
2013-04-19 11:38:00,56.8,39.4,29.84,NW,315,4.6,4.6,52,0.00,CLR,,0.00,WeatherDisplay:10.37,2013-04-19 18:38:00,
2013-04-19 11:39:00,56.8,39.4,29.84,NW,315,4.6,4.6,52,0.00,CLR,,0.00,WeatherDisplay:10.37,2013-04-19 18:39:00,
2013-04-19 11:40:00,32.7,28.1,29.91,North,11,0.0,1.0,83,0.00,CLR,CLR,0.00,WeatherDisplay:10.37,2013-04-19 18:40:00,
2013-04-19 11:41:00,56.8,38.9,29.84,NE,45,4.4,4.6,51,0.00,CLR,,0.00,WeatherDisplay:10.37,2013-04-19 18:41:00,
2013-04-19 11:43:00,57.7,40.2,29.84,SSE,158,4.1,4.1,52,0.00,CLR,,0.00,WeatherDisplay:10.37,2013-04-19 18:43:00,
2013-04-19 11:45:00,58.5,39.9,29.84,SE,135,4.0,5.8,50,0.00,CLR,,0.00,WeatherDisplay:10.37,2013-04-19 18:45:00,
2013-04-19 11:46:00,58.5,38.8,29.84,North,0,4.3,9.0,48,0.00,CLR,,0.00,WeatherDisplay:10.37,2013-04-19 18:46:00,
2013-04-19 11:48:00,58.5,38.8,29.84,North,0,4.3,9.2,48,0.00,CLR,,0.00,WeatherDisplay:10.37,2013-04-19 18:48:00,
2013-04-19 11:49:00,58.5,38.8,29.84,WSW,248,4.5,9.2,48,0.00,CLR,,0.00,WeatherDisplay:10.37,2013-04-19 18:49:00,
2013-04-19 11:50:00,58.5,38.8,29.84,South,179,5.0,9.0,48,0.00,CLR,CLR,0.00,WeatherDisplay:10.37,2013-04-19 18:50:00,
2013-04-19 11:51:00,57.6,36.9,29.84,ESE,112,4.9,7.2,46,0.00,CLR,,0.00,WeatherDisplay:10.37,2013-04-19 18:51:00,
2013-04-19 11:53:00,57.2,36.6,29.84,NE,45,5.5,8.1,46,0.00,CLR,,0.00,WeatherDisplay:10.37,2013-04-19 18:53:00,
2013-04-19 11:54:00,57.2,36.0,29.84,ESE,112,5.8,8.1,45,0.00,CLR,,0.00,WeatherDisplay:10.37,2013-04-19 18:54:00,
2013-04-19 11:55:00,57.2,36.0,29.84,ENE,75,6.0,8.0,45,0.00,CLR,CLR,0.00,WeatherDisplay:10.37,2013-04-19 18:55:00,
2013-04-19 11:57:00,57.4,36.2,29.84,SSE,158,5.8,6.9,45,0.00,CLR,,0.00,WeatherDisplay:10.37,2013-04-19 18:57:00,
2013-04-19 11:59:00,57.2,35.5,29.84,ENE,68,6.1,6.1,44,0.00,CLR,,0.00,WeatherDisplay:10.37,2013-04-19 18:59:00,
2013-04-19 12:00:00,57.2,35.5,29.84,ENE,68,6.1,10.4,44,0.00,CLR,,0.00,WeatherDisplay:10.37,2013-04-19 19:00:00,
2013-04-19 12:01:00,56.7,35.5,29.84,ENE,68,6.6,10.4,45,0.00,CLR,,0.00,WeatherDisplay:10.37,2013-04-19 19:01:00,
2013-04-19 12:02:00,56.1,35.1,29.84,NW,315,6.3,6.9,45,0.00,CLR,,0.00,WeatherDisplay:10.37,2013-04-19 19:02:00,
2013-04-19 12:04:00,56.1,35.1,29.84,NW,315,6.3,6.9,45,0.00,CLR,,0.00,WeatherDisplay:10.37,2013-04-19 19:04:00,
2013-04-19 12:05:00,56.1,35.1,29.84,ENE,68,6.1,7.2,45,0.00,CLR,,0.00,WeatherDisplay:10.37,2013-04-19 19:05:00,
2013-04-19 12:06:00,56.1,35.1,29.84,ENE,68,6.1,6.9,45,0.00,CLR,,0.00,WeatherDisplay:10.37,2013-04-19 19:06:00,
2013-04-19 12:07:00,56.1,35.6,29.84,East,90,6.3,11.5,46,0.00,CLR,,0.00,WeatherDisplay:10.37,2013-04-19 19:07:00,
2013-04-19 12:09:00,56.1,35.6,29.84,East,90,6.3,11.5,46,0.00,CLR,,0.00,WeatherDisplay:10.37,2013-04-19 19:09:00,
2013-04-19 12:10:00,56.1,35.6,29.84,East,90,6.3,11.5,46,0.00,CLR,,0.00,WeatherDisplay:10.37,2013-04-19 19:10:00,
2013-04-19 12:11:00,56.1,35.6,29.84,East,90,6.3,11.5,46,0.00,CLR,,0.00,WeatherDisplay:10.37,2013-04-19 19:11:00,
2013-04-19 12:12:00,56.1,35.6,29.84,East,90,6.3,11.5,46,0.00,CLR,,0.00,WeatherDisplay:10.37,2013-04-19 19:12:00,
2013-04-19 12:14:00,56.1,35.6,29.84,East,90,6.3,11.5,46,0.00,CLR,,0.00,WeatherDisplay:10.37,2013-04-19 19:14:00,
2013-04-19 12:15:00,56.1,35.6,29.84,East,90,6.3,11.5,46,0.00,CLR,,0.00,WeatherDisplay:10.37,2013-04-19 19:15:00,
2013-04-19 12:16:00,56.1,35.6,29.84,East,90,6.3,11.5,46,0.00,CLR,,0.00,WeatherDisplay:10.37,2013-04-19 19:16:00,
2013-04-19 12:18:00,57.6,36.9,29.84,ESE,112,4.8,5.8,46,0.00,CLR,,0.00,WeatherDisplay:10.37,2013-04-19 19:18:00,
2013-04-19 12:20:00,57.6,36.4,29.84,South,180,4.8,4.8,45,0.00,CLR,,0.00,WeatherDisplay:10.37,2013-04-19 19:20:00,
2013-04-19 12:21:00,57.6,36.4,29.84,South,180,4.8,9.2,45,0.00,CLR,,0.00,WeatherDisplay:10.37,2013-04-19 19:21:00,
2013-04-19 12:24:00,57.4,36.2,29.83,SE,135,4.7,4.7,45,0.00,CLR,,0.00,WeatherDisplay:10.37,2013-04-19 19:24:00,
2013-04-19 12:25:00,57.4,36.2,29.83,SE,135,4.7,4.7,45,0.00,CLR,,0.00,WeatherDisplay:10.37,2013-04-19 19:25:00,
2013-04-19 12:26:00,57.4,36.2,29.83,SE,135,4.7,4.7,45,0.00,CLR,,0.00,WeatherDisplay:10.37,2013-04-19 19:26:00,
2013-04-19 12:27:00,57.4,35.6,29.83,SSE,158,4.5,5.8,44,0.00,CLR,,0.00,WeatherDisplay:10.37,2013-04-19 19:27:00,
2013-04-19 12:29:00,57.2,35.5,29.83,South,180,5.1,12.7,44,0.00,CLR,,0.00,WeatherDisplay:10.37,2013-04-19 19:29:00,
2013-04-19 12:30:00,56.7,35.5,29.83,SSE,158,5.4,12.7,45,0.00,CLR,,0.00,WeatherDisplay:10.37,2013-04-19 19:30:00,
2013-04-19 12:31:00,56.7,35.5,29.83,SSE,158,5.4,12.7,45,0.00,CLR,,0.00,WeatherDisplay:10.37,2013-04-19 19:31:00,
2013-04-19 12:32:00,56.7,35.0,29.83,SSE,158,5.9,10.4,44,0.00,CLR,,0.00,WeatherDisplay:10.37,2013-04-19 19:32:00,
2013-04-19 12:34:00,55.9,34.3,29.83,SE,135,6.6,17.3,44,0.00,CLR,,0.00,WeatherDisplay:10.37,2013-04-19 19:34:00,
2013-04-19 12:35:00,55.9,34.3,29.83,SE,135,6.6,17.3,44,0.00,CLR,,0.00,WeatherDisplay:10.37,2013-04-19 19:35:00,
2013-04-19 12:36:00,55.9,34.9,29.83,SE,135,7.0,7.0,45,0.00,CLR,,0.00,WeatherDisplay:10.37,2013-04-19 19:36:00,
2013-04-19 12:37:00,55.9,34.9,29.83,SE,135,7.0,8.1,45,0.00,CLR,,0.00,WeatherDisplay:10.37,2013-04-19 19:37:00,
2013-04-19 12:40:00,55.8,34.7,29.83,SE,135,7.0,10.4,45,0.00,CLR,,0.00,WeatherDisplay:10.37,2013-04-19 19:40:00,
2013-04-19 12:41:00,55.8,34.7,29.83,SE,135,6.6,10.4,45,0.00,CLR,,0.00,WeatherDisplay:10.37,2013-04-19 19:41:00,
2013-04-19 12:42:00,55.8,34.7,29.83,SE,135,6.6,6.9,45,0.00,CLR,,0.00,WeatherDisplay:10.37,2013-04-19 19:42:00,
2013-04-19 12:45:00,56.8,35.7,29.83,NW,315,5.6,9.2,45,0.00,CLR,,0.00,WeatherDisplay:10.37,2013-04-19 19:45:00,
2013-04-19 12:46:00,56.8,35.7,29.83,ESE,112,5.3,9.2,45,0.00,CLR,,0.00,WeatherDisplay:10.37,2013-04-19 19:46:00,
2013-04-19 12:47:00,56.8,35.7,29.83,ESE,112,5.3,9.2,45,0.00,CLR,,0.00,WeatherDisplay:10.37,2013-04-19 19:47:00,
2013-04-19 12:50:00,57.6,35.8,29.83,ESE,112,5.1,5.8,44,0.00,CLR,,0.00,WeatherDisplay:10.37,2013-04-19 19:50:00,
2013-04-19 12:51:00,57.6,35.8,29.83,ESE,112,5.1,5.8,44,0.00,CLR,,0.00,WeatherDisplay:10.37,2013-04-19 19:51:00,
2013-04-19 12:52:00,57.6,35.8,29.83,ESE,112,5.1,5.8,44,0.00,CLR,,0.00,WeatherDisplay:10.37,2013-04-19 19:52:00,
2013-04-19 12:55:00,30.6,26.3,29.90,NNW,338,0.0,0.0,84,0.00,CLR,CLR,0.00,WeatherDisplay:10.37,2013-04-19 19:55:00,
2013-04-19 13:00:00,30.0,25.8,29.90,North,360,0.0,0.0,84,0.00,CLR,CLR,0.00,WeatherDisplay:10.37,2013-04-19 20:00:00,
2013-04-19 13:05:00,29.7,25.1,29.90,North,349,0.0,0.0,83,0.00,CLR,CLR,0.00,WeatherDisplay:10.37,2013-04-19 20:05:00,
2013-04-19 13:10:00,29.8,25.3,29.90,NW,315,0.0,0.0,83,0.00,CLR,CLR,0.00,WeatherDisplay:10.37,2013-04-19 20:10:00,
2013-04-19 13:15:00,29.8,25.3,29.90,NW,315,0.0,0.0,83,0.00,CLR,CLR,0.00,WeatherDisplay:10.37,2013-04-19 20:15:00,
2013-04-19 13:21:00,57.7,36.0,29.83,SE,135,4.9,8.1,44,0.00,CLR,,0.00,WeatherDisplay:10.37,2013-04-19 20:21:00,
2013-04-19 13:26:00,57.7,36.0,29.83,SE,135,4.9,8.1,44,0.00,CLR,,0.00,WeatherDisplay:10.37,2013-04-19 20:26:00,
2013-04-19 13:30:00,28.8,24.8,29.91,NW,326,0.0,0.0,85,0.00,CLR,CLR,0.00,WeatherDisplay:10.37,2013-04-19 20:30:00,
2013-04-19 13:31:00,57.7,36.0,29.83,SE,135,4.9,8.1,44,0.00,CLR,,0.00,WeatherDisplay:10.37,2013-04-19 20:31:00,
2013-04-19 13:32:00,57.7,36.0,29.83,SE,135,4.9,8.1,44,0.00,CLR,,0.00,WeatherDisplay:10.37,2013-04-19 20:32:00,
2013-04-19 13:35:00,28.8,24.8,29.91,North,349,0.0,0.0,85,0.00,CLR,CLR,0.00,WeatherDisplay:10.37,2013-04-19 20:35:00,
2013-04-19 13:36:00,57.7,36.0,29.83,SE,135,4.9,8.1,44,0.00,CLR,,0.00,WeatherDisplay:10.37,2013-04-19 20:36:00,
2013-04-19 13:37:00,57.7,36.0,29.83,SE,135,4.9,8.1,44,0.00,CLR,,0.00,WeatherDisplay:10.37,2013-04-19 20:37:00,
2013-04-19 13:40:00,28.8,24.8,29.91,NNE,22,0.0,0.0,85,0.00,CLR,CLR,0.00,WeatherDisplay:10.37,2013-04-19 20:40:00,
2013-04-19 13:41:00,57.7,36.0,29.83,SE,135,4.9,8.1,44,0.00,CLR,,0.00,WeatherDisplay:10.37,2013-04-19 20:41:00,
2013-04-19 13:42:00,57.7,36.0,29.83,SE,135,4.9,8.1,44,0.00,CLR,,0.00,WeatherDisplay:10.37,2013-04-19 20:42:00,
2013-04-19 13:43:00,57.7,36.0,29.83,SE,135,4.9,8.1,44,0.00,CLR,,0.00,WeatherDisplay:10.37,2013-04-19 20:43:00,
2013-04-19 13:45:00,28.6,24.6,29.89,North,360,0.0,0.0,85,0.00,CLR,CLR,0.00,WeatherDisplay:10.37,2013-04-19 20:45:00,
2013-04-19 13:47:00,57.7,36.0,29.83,SE,135,4.9,8.1,44,0.00,CLR,,0.00,WeatherDisplay:10.37,2013-04-19 20:47:00,
2013-04-19 13:48:00,57.7,36.0,29.83,SE,135,4.9,8.1,44,0.00,CLR,,0.00,WeatherDisplay:10.37,2013-04-19 20:48:00,
2013-04-19 13:50:00,28.8,24.8,29.89,NW,326,0.0,0.0,85,0.00,CLR,CLR,0.00,WeatherDisplay:10.37,2013-04-19 20:50:00,
2013-04-19 13:52:00,57.7,36.0,29.83,SE,135,4.9,8.1,44,0.00,CLR,,0.00,WeatherDisplay:10.37,2013-04-19 20:52:00,
2013-04-19 13:53:00,57.7,36.0,29.83,SE,135,4.9,8.1,44,0.00,CLR,,0.00,WeatherDisplay:10.37,2013-04-19 20:53:00,
2013-04-19 13:55:00,28.8,24.8,29.89,SW,225,0.0,0.0,85,0.00,CLR,CLR,0.00,WeatherDisplay:10.37,2013-04-19 20:55:00,
2013-04-19 13:57:00,57.7,36.0,29.83,SE,135,4.9,8.1,44,0.00,CLR,,0.00,WeatherDisplay:10.37,2013-04-19 20:57:00,
2013-04-19 13:58:00,57.7,36.0,29.83,SE,135,4.9,8.1,44,0.00,CLR,,0.00,WeatherDisplay:10.37,2013-04-19 20:58:00,
2013-04-19 14:00:00,29.1,25.2,29.89,SW,225,0.0,0.0,85,0.00,CLR,CLR,0.00,WeatherDisplay:10.37,2013-04-19 21:00:00,
2013-04-19 14:02:00,57.7,36.0,29.83,SE,135,4.9,8.1,44,0.00,CLR,,0.00,WeatherDisplay:10.37,2013-04-19 21:02:00,
2013-04-19 14:03:00,57.7,36.0,29.83,SE,135,4.9,8.1,44,0.00,CLR,,0.00,WeatherDisplay:10.37,2013-04-19 21:03:00,
2013-04-19 14:05:00,29.5,25.8,29.90,North,349,0.0,0.0,86,0.00,CLR,CLR,0.00,WeatherDisplay:10.37,2013-04-19 21:05:00,
2013-04-19 14:07:00,57.7,36.0,29.83,SE,135,4.9,8.1,44,0.00,CLR,,0.00,WeatherDisplay:10.37,2013-04-19 21:07:00,
2013-04-19 14:08:00,57.7,36.0,29.83,SE,135,4.9,8.1,44,0.00,CLR,,0.00,WeatherDisplay:10.37,2013-04-19 21:08:00,
2013-04-19 14:09:00,57.7,36.0,29.83,SE,135,4.9,8.1,44,0.00,CLR,,0.00,WeatherDisplay:10.37,2013-04-19 21:09:00,
2013-04-19 14:10:00,29.7,26.3,29.90,North,349,0.0,0.0,87,0.00,CLR,CLR,0.00,WeatherDisplay:10.37,2013-04-19 21:10:00,
2013-04-19 14:12:00,57.7,36.0,29.83,SE,135,4.9,8.1,44,0.00,CLR,,0.00,WeatherDisplay:10.37,2013-04-19 21:12:00,
2013-04-19 14:13:00,57.7,36.0,29.83,SE,135,4.9,8.1,44,0.00,CLR,,0.00,WeatherDisplay:10.37,2013-04-19 21:13:00,
2013-04-19 14:14:00,57.7,36.0,29.83,SE,135,4.9,8.1,44,0.00,CLR,,0.00,WeatherDisplay:10.37,2013-04-19 21:14:00,
2013-04-19 14:15:00,29.7,26.5,29.90,North,11,0.0,0.0,88,0.00,CLR,CLR,0.00,WeatherDisplay:10.37,2013-04-19 21:15:00,
2013-04-19 14:18:00,57.7,36.0,29.83,SE,135,4.9,8.1,44,0.00,CLR,,0.00,WeatherDisplay:10.37,2013-04-19 21:18:00,
2013-04-19 14:19:00,57.7,36.0,29.83,SE,135,4.9,8.1,44,0.00,CLR,,0.00,WeatherDisplay:10.37,2013-04-19 21:19:00,
2013-04-19 14:20:00,57.7,36.0,29.83,SE,135,4.9,8.1,44,0.00,CLR,,0.00,WeatherDisplay:10.37,2013-04-19 21:20:00,
2013-04-19 14:23:00,57.7,36.0,29.83,SE,135,4.9,8.1,44,0.00,CLR,,0.00,WeatherDisplay:10.37,2013-04-19 21:23:00,
2013-04-19 14:24:00,57.7,36.0,29.83,SE,135,4.9,8.1,44,0.00,CLR,,0.00,WeatherDisplay:10.37,2013-04-19 21:24:00,
2013-04-19 14:25:00,57.7,36.0,29.83,SE,135,4.9,8.1,44,0.00,CLR,,0.00,WeatherDisplay:10.37,2013-04-19 21:25:00,
2013-04-19 14:28:00,57.7,36.0,29.83,SE,135,4.9,8.1,44,0.00,CLR,,0.00,WeatherDisplay:10.37,2013-04-19 21:28:00,
2013-04-19 14:29:00,57.7,36.0,29.83,SE,135,4.9,8.1,44,0.00,CLR,,0.00,WeatherDisplay:10.37,2013-04-19 21:29:00,
2013-04-19 14:30:00,57.7,36.0,29.83,SE,135,4.9,8.1,44,0.00,CLR,,0.00,WeatherDisplay:10.37,2013-04-19 21:30:00,
2013-04-19 14:33:00,57.7,36.0,29.83,SE,135,4.9,8.1,44,0.00,CLR,,0.00,WeatherDisplay:10.37,2013-04-19 21:33:00,
2013-04-19 14:34:00,57.7,36.0,29.83,SE,135,4.9,8.1,44,0.00,CLR,,0.00,WeatherDisplay:10.37,2013-04-19 21:34:00,
2013-04-19 14:35:00,57.7,36.0,29.83,SE,135,4.9,8.1,44,0.00,CLR,,0.00,WeatherDisplay:10.37,2013-04-19 21:35:00,
2013-04-19 14:38:00,57.7,36.0,29.83,SE,135,4.9,8.1,44,0.00,CLR,,0.00,WeatherDisplay:10.37,2013-04-19 21:38:00,
2013-04-19 14:39:00,57.7,36.0,29.83,SE,135,4.9,8.1,44,0.00,CLR,,0.00,WeatherDisplay:10.37,2013-04-19 21:39:00,
2013-04-19 14:40:00,57.7,36.0,29.83,SE,135,4.9,8.1,44,0.00,CLR,,0.00,WeatherDisplay:10.37,2013-04-19 21:40:00,
2013-04-19 14:43:00,57.7,36.0,29.83,SE,135,4.9,8.1,44,0.00,CLR,,0.00,WeatherDisplay:10.37,2013-04-19 21:43:00,
2013-04-19 14:44:00,57.7,36.0,29.83,SE,135,4.9,8.1,44,0.00,CLR,,0.00,WeatherDisplay:10.37,2013-04-19 21:44:00,
2013-04-19 14:45:00,57.7,36.0,29.83,SE,135,4.9,8.1,44,0.00,CLR,,0.00,WeatherDisplay:10.37,2013-04-19 21:45:00,
2013-04-19 14:49:00,57.7,36.0,29.83,SE,135,4.9,8.1,44,0.00,CLR,,0.00,WeatherDisplay:10.37,2013-04-19 21:49:00,
2013-04-19 14:50:00,57.7,36.0,29.83,SE,135,4.9,8.1,44,0.00,CLR,,0.00,WeatherDisplay:10.37,2013-04-19 21:50:00,
2013-04-19 14:54:00,57.7,36.0,29.83,SE,135,4.9,8.1,44,0.00,CLR,,0.00,WeatherDisplay:10.37,2013-04-19 21:54:00,
2013-04-19 14:55:00,57.7,36.0,29.83,SE,135,4.9,8.1,44,0.00,CLR,,0.00,WeatherDisplay:10.37,2013-04-19 21:55:00,
2013-04-19 14:59:00,57.7,36.0,29.83,SE,135,4.9,8.1,44,0.00,CLR,,0.00,WeatherDisplay:10.37,2013-04-19 21:59:00,
2013-04-19 15:00:00,57.7,36.0,29.83,SE,135,4.9,8.1,44,0.00,CLR,,0.00,WeatherDisplay:10.37,2013-04-19 22:00:00,
2013-04-19 15:01:00,57.7,36.0,29.83,SE,135,4.9,8.1,44,0.00,CLR,,0.00,WeatherDisplay:10.37,2013-04-19 22:01:00,
2013-04-19 15:05:00,57.7,36.0,29.83,SE,135,4.9,8.1,44,0.00,CLR,,0.00,WeatherDisplay:10.37,2013-04-19 22:05:00,
2013-04-19 15:06:00,57.7,36.0,29.83,SE,135,4.9,8.1,44,0.00,CLR,,0.00,WeatherDisplay:10.37,2013-04-19 22:06:00,
2013-04-19 15:10:00,57.7,36.0,29.83,SE,135,4.9,8.1,44,0.00,CLR,,0.00,WeatherDisplay:10.37,2013-04-19 22:10:00,
2013-04-19 15:11:00,57.7,36.0,29.83,SE,135,4.9,8.1,44,0.00,CLR,,0.00,WeatherDisplay:10.37,2013-04-19 22:11:00,
2013-04-19 15:15:00,57.7,36.0,29.83,SE,135,4.9,8.1,44,0.00,CLR,,0.00,WeatherDisplay:10.37,2013-04-19 22:15:00,
2013-04-19 15:16:00,57.7,36.0,29.83,SE,135,4.9,8.1,44,0.00,CLR,,0.00,WeatherDisplay:10.37,2013-04-19 22:16:00,
2013-04-19 15:17:00,57.7,36.0,29.83,SE,135,4.9,8.1,44,0.00,CLR,,0.00,WeatherDisplay:10.37,2013-04-19 22:17:00,
2013-04-19 15:20:00,57.7,36.0,29.83,SE,135,4.9,8.1,44,0.00,CLR,,0.00,WeatherDisplay:10.37,2013-04-19 22:20:00,
2013-04-19 15:21:00,57.7,36.0,29.83,SE,135,4.9,8.1,44,0.00,CLR,,0.00,WeatherDisplay:10.37,2013-04-19 22:21:00,
2013-04-19 15:22:00,57.7,36.0,29.83,SE,135,4.9,8.1,44,0.00,CLR,,0.00,WeatherDisplay:10.37,2013-04-19 22:22:00,
2013-04-19 15:25:00,57.7,36.0,29.83,SE,135,4.9,8.1,44,0.00,CLR,,0.00,WeatherDisplay:10.37,2013-04-19 22:25:00,
2013-04-19 15:26:00,57.7,36.0,29.83,SE,135,4.9,8.1,44,0.00,CLR,,0.00,WeatherDisplay:10.37,2013-04-19 22:26:00,
2013-04-19 15:27:00,57.7,36.0,29.83,SE,135,4.9,8.1,44,0.00,CLR,,0.00,WeatherDisplay:10.37,2013-04-19 22:27:00,
2013-04-19 15:28:00,57.7,36.0,29.83,SE,135,4.9,8.1,44,0.00,CLR,,0.00,WeatherDisplay:10.37,2013-04-19 22:28:00,
2013-04-19 15:30:00,57.7,36.0,29.83,SE,135,4.9,8.1,44,0.00,CLR,,0.00,WeatherDisplay:10.37,2013-04-19 22:30:00,
2013-04-19 15:31:00,57.7,36.0,29.83,SE,135,4.9,8.1,44,0.00,CLR,,0.00,WeatherDisplay:10.37,2013-04-19 22:31:00,
2013-04-19 15:32:00,57.7,36.0,29.83,SE,135,4.9,8.1,44,0.00,CLR,,0.00,WeatherDisplay:10.37,2013-04-19 22:32:00,
2013-04-19 15:33:00,57.7,36.0,29.83,SE,135,4.9,8.1,44,0.00,CLR,,0.00,WeatherDisplay:10.37,2013-04-19 22:33:00,
2013-04-19 15:35:00,57.7,36.0,29.83,SE,135,4.9,8.1,44,0.00,CLR,,0.00,WeatherDisplay:10.37,2013-04-19 22:35:00,
2013-04-19 15:37:00,57.7,36.0,29.83,SE,135,4.9,8.1,44,0.00,CLR,,0.00,WeatherDisplay:10.37,2013-04-19 22:37:00,
2013-04-19 15:38:00,57.7,36.0,29.83,SE,135,4.9,8.1,44,0.00,CLR,,0.00,WeatherDisplay:10.37,2013-04-19 22:38:00,
2013-04-19 15:40:00,57.7,36.0,29.83,SE,135,4.9,8.1,44,0.00,CLR,,0.00,WeatherDisplay:10.37,2013-04-19 22:40:00,
2013-04-19 15:42:00,57.7,36.0,29.83,SE,135,4.9,8.1,44,0.00,CLR,,0.00,WeatherDisplay:10.37,2013-04-19 22:42:00,
2013-04-19 15:43:00,57.7,36.0,29.83,SE,135,4.9,8.1,44,0.00,CLR,,0.00,WeatherDisplay:10.37,2013-04-19 22:43:00,
2013-04-19 15:44:00,57.7,36.0,29.83,SE,135,4.9,8.1,44,0.00,CLR,,0.00,WeatherDisplay:10.37,2013-04-19 22:44:00,
2013-04-19 15:45:00,57.7,36.0,29.83,SE,135,4.9,8.1,44,0.00,CLR,,0.00,WeatherDisplay:10.37,2013-04-19 22:45:00,
2013-04-19 15:47:00,57.7,36.0,29.83,SE,135,4.9,8.1,44,0.00,CLR,,0.00,WeatherDisplay:10.37,2013-04-19 22:47:00,
2013-04-19 15:48:00,57.7,36.0,29.83,SE,135,4.9,8.1,44,0.00,CLR,,0.00,WeatherDisplay:10.37,2013-04-19 22:48:00,
2013-04-19 15:49:00,57.7,36.0,29.83,SE,135,4.9,8.1,44,0.00,CLR,,0.00,WeatherDisplay:10.37,2013-04-19 22:49:00,
2013-04-19 15:50:00,32.5,30.7,29.90,ENE,68,0.0,0.0,93,0.00,CLR,CLR,0.00,WeatherDisplay:10.37,2013-04-19 22:50:00,
2013-04-19 15:51:00,57.7,36.0,29.83,SE,135,4.9,8.1,44,0.00,CLR,,0.00,WeatherDisplay:10.37,2013-04-19 22:51:00,
2013-04-19 15:52:00,57.7,36.0,29.83,SE,135,4.9,8.1,44,0.00,CLR,,0.00,WeatherDisplay:10.37,2013-04-19 22:52:00,
2013-04-19 15:53:00,57.7,36.0,29.83,SE,135,4.9,8.1,44,0.00,CLR,,0.00,WeatherDisplay:10.37,2013-04-19 22:53:00,
2013-04-19 15:54:00,57.7,36.0,29.83,SE,135,4.9,8.1,44,0.00,CLR,,0.00,WeatherDisplay:10.37,2013-04-19 22:54:00,
2013-04-19 15:55:00,32.4,30.6,29.90,ENE,68,0.0,0.0,93,0.00,CLR,CLR,0.00,WeatherDisplay:10.37,2013-04-19 22:55:00,
2013-04-19 15:56:00,57.7,36.0,29.83,SE,135,4.9,8.1,44,0.00,CLR,,0.00,WeatherDisplay:10.37,2013-04-19 22:56:00,
2013-04-19 15:58:00,57.7,36.0,29.83,SE,135,4.9,8.1,44,0.00,CLR,,0.00,WeatherDisplay:10.37,2013-04-19 22:58:00,
2013-04-19 16:00:00,57.7,36.0,29.83,SE,135,4.9,8.1,44,0.00,CLR,,0.00,WeatherDisplay:10.37,2013-04-19 23:00:00,
2013-04-19 16:01:00,57.7,36.0,29.83,SE,135,4.9,8.1,44,0.00,CLR,,0.00,WeatherDisplay:10.37,2013-04-19 23:01:00,
2013-04-19 16:03:00,57.7,36.0,29.83,SE,135,4.9,8.1,44,0.00,CLR,,0.00,WeatherDisplay:10.37,2013-04-19 23:03:00,
2013-04-19 16:05:00,57.7,36.0,29.83,SE,135,4.9,8.1,44,0.00,CLR,,0.00,WeatherDisplay:10.37,2013-04-19 23:05:00,
2013-04-19 16:06:00,57.7,36.0,29.83,SE,135,4.9,8.1,44,0.00,CLR,,0.00,WeatherDisplay:10.37,2013-04-19 23:06:00,
2013-04-19 16:08:00,57.7,36.0,29.83,SE,135,4.9,8.1,44,0.00,CLR,,0.00,WeatherDisplay:10.37,2013-04-19 23:08:00,
2013-04-19 16:09:00,57.7,36.0,29.83,SE,135,4.9,8.1,44,0.00,CLR,,0.00,WeatherDisplay:10.37,2013-04-19 23:09:00,
2013-04-19 16:10:00,57.7,36.0,29.83,SE,135,4.9,8.1,44,0.00,CLR,,0.00,WeatherDisplay:10.37,2013-04-19 23:10:00,
2013-04-19 16:11:00,57.7,36.0,29.83,SE,135,4.9,8.1,44,0.00,CLR,,0.00,WeatherDisplay:10.37,2013-04-19 23:11:00,
2013-04-19 16:13:00,57.7,36.0,29.83,SE,135,4.9,8.1,44,0.00,CLR,,0.00,WeatherDisplay:10.37,2013-04-19 23:13:00,
2013-04-19 16:14:00,57.7,36.0,29.83,SE,135,4.9,8.1,44,0.00,CLR,,0.00,WeatherDisplay:10.37,2013-04-19 23:14:00,
2013-04-19 16:15:00,57.7,36.0,29.83,SE,135,4.9,8.1,44,0.00,CLR,,0.00,WeatherDisplay:10.37,2013-04-19 23:15:00,
2013-04-19 16:17:00,57.7,36.0,29.83,SE,135,4.9,8.1,44,0.00,CLR,,0.00,WeatherDisplay:10.37,2013-04-19 23:17:00,
2013-04-19 16:18:00,57.7,36.0,29.83,SE,135,4.9,8.1,44,0.00,CLR,,0.00,WeatherDisplay:10.37,2013-04-19 23:18:00,
2013-04-19 16:19:00,57.7,36.0,29.83,SE,135,4.9,8.1,44,0.00,CLR,,0.00,WeatherDisplay:10.37,2013-04-19 23:19:00,
2013-04-19 16:20:00,57.7,36.0,29.83,SE,135,4.9,8.1,44,0.00,CLR,,0.00,WeatherDisplay:10.37,2013-04-19 23:20:00,
2013-04-19 16:22:00,57.7,36.0,29.83,SE,135,4.9,8.1,44,0.00,CLR,,0.00,WeatherDisplay:10.37,2013-04-19 23:22:00,
2013-04-19 16:24:00,57.7,36.0,29.83,SE,135,4.9,8.1,44,0.00,CLR,,0.00,WeatherDisplay:10.37,2013-04-19 23:24:00,
2013-04-19 16:25:00,32.7,30.9,29.90,ENE,68,0.0,0.0,93,0.00,CLR,CLR,0.00,WeatherDisplay:10.37,2013-04-19 23:25:00,
2013-04-19 16:26:00,57.7,36.0,29.83,SE,135,4.9,8.1,44,0.00,CLR,,0.00,WeatherDisplay:10.37,2013-04-19 23:26:00,
2013-04-19 16:27:00,57.7,36.0,29.83,SE,135,4.9,8.1,44,0.00,CLR,,0.00,WeatherDisplay:10.37,2013-04-19 23:27:00,
2013-04-19 16:29:00,57.7,36.0,29.83,SE,135,4.9,8.1,44,0.00,CLR,,0.00,WeatherDisplay:10.37,2013-04-19 23:29:00,
2013-04-19 16:30:00,33.1,31.3,29.90,NNW,334,0.0,2.0,93,0.00,CLR,CLR,0.00,WeatherDisplay:10.37,2013-04-19 23:30:00,
2013-04-19 16:31:00,57.7,36.0,29.83,SE,135,4.9,8.1,44,0.00,CLR,,0.00,WeatherDisplay:10.37,2013-04-19 23:31:00,
2013-04-19 16:32:00,57.7,36.0,29.83,SE,135,4.9,8.1,44,0.00,CLR,,0.00,WeatherDisplay:10.37,2013-04-19 23:32:00,
2013-04-19 16:34:00,57.7,36.0,29.83,SE,135,4.9,8.1,44,0.00,CLR,,0.00,WeatherDisplay:10.37,2013-04-19 23:34:00,
2013-04-19 16:35:00,57.7,36.0,29.83,SE,135,4.9,8.1,44,0.00,CLR,,0.00,WeatherDisplay:10.37,2013-04-19 23:35:00,
2013-04-19 16:36:00,57.7,36.0,29.83,SE,135,4.9,8.1,44,0.00,CLR,,0.00,WeatherDisplay:10.37,2013-04-19 23:36:00,
2013-04-19 16:37:00,57.7,36.0,29.83,SE,135,4.9,8.1,44,0.00,CLR,,0.00,WeatherDisplay:10.37,2013-04-19 23:37:00,
2013-04-19 16:39:00,57.7,36.0,29.83,SE,135,4.9,8.1,44,0.00,CLR,,0.00,WeatherDisplay:10.37,2013-04-19 23:39:00,
2013-04-19 16:40:00,57.7,36.0,29.83,SE,135,4.9,8.1,44,0.00,CLR,,0.00,WeatherDisplay:10.37,2013-04-19 23:40:00,
2013-04-19 16:41:00,57.7,36.0,29.83,SE,135,4.9,8.1,44,0.00,CLR,,0.00,WeatherDisplay:10.37,2013-04-19 23:41:00,
2013-04-19 16:43:00,57.7,36.0,29.83,SE,135,4.9,8.1,44,0.00,CLR,,0.00,WeatherDisplay:10.37,2013-04-19 23:43:00,
2013-04-19 16:44:00,57.7,36.0,29.83,SE,135,4.9,8.1,44,0.00,CLR,,0.00,WeatherDisplay:10.37,2013-04-19 23:44:00,
2013-04-19 16:45:00,57.7,36.0,29.83,SE,135,4.9,8.1,44,0.00,CLR,,0.00,WeatherDisplay:10.37,2013-04-19 23:45:00,
2013-04-19 16:46:00,57.7,36.0,29.83,SE,135,4.9,8.1,44,0.00,CLR,,0.00,WeatherDisplay:10.37,2013-04-19 23:46:00,
2013-04-19 16:48:00,57.7,36.0,29.83,SE,135,4.9,8.1,44,0.00,CLR,,0.00,WeatherDisplay:10.37,2013-04-19 23:48:00,
2013-04-19 16:49:00,57.7,36.0,29.83,SE,135,4.9,8.1,44,0.00,CLR,,0.00,WeatherDisplay:10.37,2013-04-19 23:49:00,
2013-04-19 16:50:00,57.7,36.0,29.83,SE,135,4.9,8.1,44,0.00,CLR,,0.00,WeatherDisplay:10.37,2013-04-19 23:50:00,
2013-04-19 16:52:00,57.7,36.0,29.83,SE,135,4.9,8.1,44,0.00,CLR,,0.00,WeatherDisplay:10.37,2013-04-19 23:52:00,
2013-04-19 16:53:00,57.7,36.0,29.83,SE,135,4.9,8.1,44,0.00,CLR,,0.00,WeatherDisplay:10.37,2013-04-19 23:53:00,
2013-04-19 16:54:00,57.7,36.0,29.83,SE,135,4.9,8.1,44,0.00,CLR,,0.00,WeatherDisplay:10.37,2013-04-19 23:54:00,
2013-04-19 16:55:00,57.7,36.0,29.83,SE,135,4.9,8.1,44,0.00,CLR,,0.00,WeatherDisplay:10.37,2013-04-19 23:55:00,
2013-04-19 16:57:00,57.7,36.0,29.83,SE,135,4.9,8.1,44,0.00,CLR,,0.00,WeatherDisplay:10.37,2013-04-19 23:57:00,
2013-04-19 16:58:00,57.7,36.0,29.83,SE,135,4.9,8.1,44,0.00,CLR,,0.00,WeatherDisplay:10.37,2013-04-19 23:58:00,
2013-04-19 17:00:00,57.7,36.0,29.83,SE,135,4.9,8.1,44,0.00,CLR,,0.00,WeatherDisplay:10.37,2013-04-20 00:00:00,
2013-04-19 17:01:00,57.7,36.0,29.83,SE,135,4.9,8.1,44,0.00,CLR,,0.00,WeatherDisplay:10.37,2013-04-20 00:01:00,
2013-04-19 17:02:00,57.7,36.0,29.83,SE,135,4.9,8.1,44,0.00,CLR,,0.00,WeatherDisplay:10.37,2013-04-20 00:02:00,
2013-04-19 17:03:00,57.7,36.0,29.83,SE,135,4.9,8.1,44,0.00,CLR,,0.00,WeatherDisplay:10.37,2013-04-20 00:03:00,
2013-04-19 17:05:00,57.7,36.0,29.83,SE,135,4.9,8.1,44,0.00,CLR,,0.00,WeatherDisplay:10.37,2013-04-20 00:05:00,
2013-04-19 17:06:00,57.7,36.0,29.83,SE,135,4.9,8.1,44,0.00,CLR,,0.00,WeatherDisplay:10.37,2013-04-20 00:06:00,
2013-04-19 17:07:00,57.7,36.0,29.83,SE,135,4.9,8.1,44,0.00,CLR,,0.00,WeatherDisplay:10.37,2013-04-20 00:07:00,
2013-04-19 17:08:00,57.7,36.0,29.83,SE,135,4.9,8.1,44,0.00,CLR,,0.00,WeatherDisplay:10.37,2013-04-20 00:08:00,
2013-04-19 17:11:00,57.7,36.0,29.83,SE,135,4.9,8.1,44,0.00,CLR,,0.00,WeatherDisplay:10.37,2013-04-20 00:11:00,
2013-04-19 17:12:00,57.7,36.0,29.83,SE,135,4.9,8.1,44,0.00,CLR,,0.00,WeatherDisplay:10.37,2013-04-20 00:12:00,
2013-04-19 17:14:00,57.7,36.0,29.83,SE,135,4.9,8.1,44,0.00,CLR,,0.00,WeatherDisplay:10.37,2013-04-20 00:14:00,
2013-04-19 17:16:00,57.7,36.0,29.83,SE,135,4.9,8.1,44,0.00,CLR,,0.00,WeatherDisplay:10.37,2013-04-20 00:16:00,
2013-04-19 17:17:00,57.7,36.0,29.83,SE,135,4.9,8.1,44,0.00,CLR,,0.00,WeatherDisplay:10.37,2013-04-20 00:17:00,
2013-04-19 17:18:00,57.7,36.0,29.83,SE,135,4.9,8.1,44,0.00,CLR,,0.00,WeatherDisplay:10.37,2013-04-20 00:18:00,
2013-04-19 17:19:00,57.7,36.0,29.83,SE,135,4.9,8.1,44,0.00,CLR,,0.00,WeatherDisplay:10.37,2013-04-20 00:19:00,
2013-04-19 17:21:00,57.7,36.0,29.83,SE,135,4.9,8.1,44,0.00,CLR,,0.00,WeatherDisplay:10.37,2013-04-20 00:21:00,
2013-04-19 17:22:00,57.7,36.0,29.83,SE,135,4.9,8.1,44,0.00,CLR,,0.00,WeatherDisplay:10.37,2013-04-20 00:22:00,
2013-04-19 17:23:00,57.7,36.0,29.83,SE,135,4.9,8.1,44,0.00,CLR,,0.00,WeatherDisplay:10.37,2013-04-20 00:23:00,
2013-04-19 17:24:00,57.7,36.0,29.83,SE,135,4.9,8.1,44,0.00,CLR,,0.00,WeatherDisplay:10.37,2013-04-20 00:24:00,
2013-04-19 17:26:00,57.7,36.0,29.83,SE,135,4.9,8.1,44,0.00,CLR,,0.00,WeatherDisplay:10.37,2013-04-20 00:26:00,
2013-04-19 17:27:00,57.7,36.0,29.83,SE,135,4.9,8.1,44,0.00,CLR,,0.00,WeatherDisplay:10.37,2013-04-20 00:27:00,
2013-04-19 17:28:00,57.7,36.0,29.83,SE,135,4.9,8.1,44,0.00,CLR,,0.00,WeatherDisplay:10.37,2013-04-20 00:28:00,
2013-04-19 17:30:00,57.7,36.0,29.83,SE,135,4.9,8.1,44,0.00,CLR,,0.00,WeatherDisplay:10.37,2013-04-20 00:30:00,
2013-04-19 17:31:00,57.7,36.0,29.83,SE,135,4.9,8.1,44,0.00,CLR,,0.00,WeatherDisplay:10.37,2013-04-20 00:31:00,
2013-04-19 17:32:00,57.7,36.0,29.83,SE,135,4.9,8.1,44,0.00,CLR,,0.00,WeatherDisplay:10.37,2013-04-20 00:32:00,
2013-04-19 17:34:00,57.7,36.0,29.83,SE,135,4.9,8.1,44,0.00,CLR,,0.00,WeatherDisplay:10.37,2013-04-20 00:34:00,
2013-04-19 17:35:00,57.7,36.0,29.83,SE,135,4.9,8.1,44,0.00,CLR,,0.00,WeatherDisplay:10.37,2013-04-20 00:35:00,
2013-04-19 17:36:00,57.7,36.0,29.83,SE,135,4.9,8.1,44,0.00,CLR,,0.00,WeatherDisplay:10.37,2013-04-20 00:36:00,
2013-04-19 17:37:00,57.7,36.0,29.83,SE,135,4.9,8.1,44,0.00,CLR,,0.00,WeatherDisplay:10.37,2013-04-20 00:37:00,
2013-04-19 17:39:00,57.7,36.0,29.83,SE,135,4.9,8.1,44,0.00,CLR,,0.00,WeatherDisplay:10.37,2013-04-20 00:39:00,
2013-04-19 17:40:00,57.7,36.0,29.83,SE,135,4.9,8.1,44,0.00,CLR,,0.00,WeatherDisplay:10.37,2013-04-20 00:40:00,
2013-04-19 17:41:00,57.7,36.0,29.83,SE,135,4.9,8.1,44,0.00,CLR,,0.00,WeatherDisplay:10.37,2013-04-20 00:41:00,
2013-04-19 17:42:00,57.7,36.0,29.83,SE,135,4.9,8.1,44,0.00,CLR,,0.00,WeatherDisplay:10.37,2013-04-20 00:42:00,
2013-04-19 17:44:00,57.7,36.0,29.83,SE,135,4.9,8.1,44,0.00,CLR,,0.00,WeatherDisplay:10.37,2013-04-20 00:44:00,
2013-04-19 17:45:00,57.7,36.0,29.83,SE,135,4.9,8.1,44,0.00,CLR,,0.00,WeatherDisplay:10.37,2013-04-20 00:45:00,
2013-04-19 17:47:00,57.7,36.0,29.83,SE,135,4.9,8.1,44,0.00,CLR,,0.00,WeatherDisplay:10.37,2013-04-20 00:47:00,
2013-04-19 17:49:00,57.7,36.0,29.83,SE,135,4.9,8.1,44,0.00,CLR,,0.00,WeatherDisplay:10.37,2013-04-20 00:49:00,
2013-04-19 17:51:00,57.7,36.0,29.83,SE,135,4.9,8.1,44,0.00,CLR,,0.00,WeatherDisplay:10.37,2013-04-20 00:51:00,
2013-04-19 17:52:00,57.7,36.0,29.83,SE,135,4.9,8.1,44,0.00,CLR,,0.00,WeatherDisplay:10.37,2013-04-20 00:52:00,
2013-04-19 17:54:00,57.7,36.0,29.83,SE,135,4.9,8.1,44,0.00,CLR,,0.00,WeatherDisplay:10.37,2013-04-20 00:54:00,
2013-04-19 17:56:00,57.7,36.0,29.83,SE,135,4.9,8.1,44,0.00,CLR,,0.00,WeatherDisplay:10.37,2013-04-20 00:56:00,
2013-04-19 17:57:00,57.7,36.0,29.83,SE,135,4.9,8.1,44,0.00,CLR,,0.00,WeatherDisplay:10.37,2013-04-20 00:57:00,
2013-04-19 17:58:00,57.7,36.0,29.83,SE,135,4.9,8.1,44,0.00,CLR,,0.00,WeatherDisplay:10.37,2013-04-20 00:58:00,
2013-04-19 17:59:00,57.7,36.0,29.83,SE,135,4.9,8.1,44,0.00,CLR,,0.00,WeatherDisplay:10.37,2013-04-20 00:59:00,
2013-04-19 18:01:00,57.7,36.0,29.83,SE,135,4.9,8.1,44,0.00,CLR,,0.00,WeatherDisplay:10.37,2013-04-20 01:01:00,
2013-04-19 18:02:00,57.7,36.0,29.83,SE,135,4.9,8.1,44,0.00,CLR,,0.00,WeatherDisplay:10.37,2013-04-20 01:02:00,
2013-04-19 18:03:00,57.7,36.0,29.83,SE,135,4.9,8.1,44,0.00,CLR,,0.00,WeatherDisplay:10.37,2013-04-20 01:03:00,
2013-04-19 18:05:00,57.7,36.0,29.83,SE,135,5.0,8.0,44,0.00,CLR,CLR,0.00,WeatherDisplay:10.37,2013-04-20 01:05:00,
2013-04-19 18:06:00,57.7,36.0,29.83,SE,135,4.9,8.1,44,0.00,CLR,,0.00,WeatherDisplay:10.37,2013-04-20 01:06:00,
2013-04-19 18:07:00,57.7,36.0,29.83,SE,135,4.9,8.1,44,0.00,CLR,,0.00,WeatherDisplay:10.37,2013-04-20 01:07:00,
2013-04-19 18:08:00,57.7,36.0,29.83,SE,135,4.9,8.1,44,0.00,CLR,,0.00,WeatherDisplay:10.37,2013-04-20 01:08:00,
2013-04-19 18:11:00,57.7,36.0,29.83,SE,135,4.9,8.1,44,0.00,CLR,,0.00,WeatherDisplay:10.37,2013-04-20 01:11:00,
2013-04-19 18:12:00,57.7,36.0,29.83,SE,135,4.9,8.1,44,0.00,CLR,,0.00,WeatherDisplay:10.37,2013-04-20 01:12:00,
2013-04-19 18:13:00,57.7,36.0,29.83,SE,135,4.9,8.1,44,0.00,CLR,,0.00,WeatherDisplay:10.37,2013-04-20 01:13:00,
2013-04-19 18:14:00,57.7,36.0,29.83,SE,135,4.9,8.1,44,0.00,CLR,,0.00,WeatherDisplay:10.37,2013-04-20 01:14:00,
2013-04-19 18:16:00,57.7,36.0,29.83,SE,135,4.9,8.1,44,0.00,CLR,,0.00,WeatherDisplay:10.37,2013-04-20 01:16:00,
2013-04-19 18:17:00,57.7,36.0,29.83,SE,135,4.9,8.1,44,0.00,CLR,,0.00,WeatherDisplay:10.37,2013-04-20 01:17:00,
2013-04-19 18:18:00,57.7,36.0,29.83,SE,135,4.9,8.1,44,0.00,CLR,,0.00,WeatherDisplay:10.37,2013-04-20 01:18:00,
2013-04-19 18:19:00,57.7,36.0,29.83,SE,135,4.9,8.1,44,0.00,CLR,,0.00,WeatherDisplay:10.37,2013-04-20 01:19:00,
2013-04-19 18:22:00,57.7,36.0,29.83,SE,135,4.9,8.1,44,0.00,CLR,,0.00,WeatherDisplay:10.37,2013-04-20 01:22:00,
2013-04-19 18:23:00,57.7,36.0,29.83,SE,135,4.9,8.1,44,0.00,CLR,,0.00,WeatherDisplay:10.37,2013-04-20 01:23:00,
2013-04-19 18:24:00,57.7,36.0,29.83,SE,135,4.9,8.1,44,0.00,CLR,,0.00,WeatherDisplay:10.37,2013-04-20 01:24:00,
2013-04-19 18:27:00,57.7,36.0,29.83,SE,135,4.9,8.1,44,0.00,CLR,,0.00,WeatherDisplay:10.37,2013-04-20 01:27:00,
2013-04-19 18:29:00,57.7,36.0,29.83,SE,135,4.9,8.1,44,0.00,CLR,,0.00,WeatherDisplay:10.37,2013-04-20 01:29:00,
2013-04-19 18:32:00,57.7,36.0,29.83,SE,135,4.9,8.1,44,0.00,CLR,,0.00,WeatherDisplay:10.37,2013-04-20 01:32:00,
2013-04-19 18:34:00,57.7,36.0,29.83,SE,135,4.9,8.1,44,0.00,CLR,,0.00,WeatherDisplay:10.37,2013-04-20 01:34:00,
2013-04-19 18:37:00,57.7,36.0,29.83,SE,135,4.9,8.1,44,0.00,CLR,,0.00,WeatherDisplay:10.37,2013-04-20 01:37:00,
2013-04-19 18:39:00,57.7,36.0,29.83,SE,135,4.9,8.1,44,0.00,CLR,,0.00,WeatherDisplay:10.37,2013-04-20 01:39:00,
2013-04-19 18:42:00,57.7,36.0,29.83,SE,135,4.9,8.1,44,0.00,CLR,,0.00,WeatherDisplay:10.37,2013-04-20 01:42:00,
2013-04-19 18:43:00,57.7,36.0,29.83,SE,135,4.9,8.1,44,0.00,CLR,,0.00,WeatherDisplay:10.37,2013-04-20 01:43:00,
2013-04-19 18:44:00,57.7,36.0,29.83,SE,135,4.9,8.1,44,0.00,CLR,,0.00,WeatherDisplay:10.37,2013-04-20 01:44:00,
2013-04-19 18:47:00,57.7,36.0,29.83,SE,135,4.9,8.1,44,0.00,CLR,,0.00,WeatherDisplay:10.37,2013-04-20 01:47:00,
2013-04-19 18:48:00,57.7,36.0,29.83,SE,135,4.9,8.1,44,0.00,CLR,,0.00,WeatherDisplay:10.37,2013-04-20 01:48:00,
2013-04-19 18:49:00,57.7,36.0,29.83,SE,135,4.9,8.1,44,0.00,CLR,,0.00,WeatherDisplay:10.37,2013-04-20 01:49:00,
2013-04-19 18:50:00,57.7,36.0,29.83,SE,135,4.9,8.1,44,0.00,CLR,,0.00,WeatherDisplay:10.37,2013-04-20 01:50:00,
2013-04-19 18:52:00,57.7,36.0,29.83,SE,135,4.9,8.1,44,0.00,CLR,,0.00,WeatherDisplay:10.37,2013-04-20 01:52:00,
2013-04-19 18:53:00,57.7,36.0,29.83,SE,135,4.9,8.1,44,0.00,CLR,,0.00,WeatherDisplay:10.37,2013-04-20 01:53:00,
2013-04-19 18:54:00,57.7,36.0,29.83,SE,135,4.9,8.1,44,0.00,CLR,,0.00,WeatherDisplay:10.37,2013-04-20 01:54:00,
2013-04-19 18:55:00,57.7,36.0,29.83,SE,135,4.9,8.1,44,0.00,CLR,,0.00,WeatherDisplay:10.37,2013-04-20 01:55:00,
2013-04-19 18:57:00,57.7,36.0,29.83,SE,135,4.9,8.1,44,0.00,CLR,,0.00,WeatherDisplay:10.37,2013-04-20 01:57:00,
2013-04-19 18:58:00,57.7,36.0,29.83,SE,135,4.9,8.1,44,0.00,CLR,,0.00,WeatherDisplay:10.37,2013-04-20 01:58:00,
2013-04-19 18:59:00,57.7,36.0,29.83,SE,135,4.9,8.1,44,0.00,CLR,,0.00,WeatherDisplay:10.37,2013-04-20 01:59:00,
2013-04-19 19:00:00,57.7,36.0,29.83,SE,135,4.9,8.1,44,0.00,CLR,,0.00,WeatherDisplay:10.37,2013-04-20 02:00:00,
2013-04-19 19:02:00,57.7,36.0,29.83,SE,135,4.9,8.1,44,0.00,CLR,,0.00,WeatherDisplay:10.37,2013-04-20 02:02:00,
2013-04-19 19:03:00,57.7,36.0,29.83,SE,135,4.9,8.1,44,0.00,CLR,,0.00,WeatherDisplay:10.37,2013-04-20 02:03:00,
2013-04-19 19:04:00,57.7,36.0,29.83,SE,135,4.9,8.1,44,0.00,CLR,,0.00,WeatherDisplay:10.37,2013-04-20 02:04:00,
2013-04-19 19:05:00,57.7,36.0,29.83,SE,135,4.9,8.1,44,0.00,CLR,,0.00,WeatherDisplay:10.37,2013-04-20 02:05:00,
2013-04-19 19:07:00,57.7,36.0,29.83,SE,135,4.9,8.1,44,0.00,CLR,,0.00,WeatherDisplay:10.37,2013-04-20 02:07:00,
2013-04-19 19:08:00,57.7,36.0,29.83,SE,135,4.9,8.1,44,0.00,CLR,,0.00,WeatherDisplay:10.37,2013-04-20 02:08:00,
2013-04-19 19:09:00,57.7,36.0,29.83,SE,135,4.9,8.1,44,0.00,CLR,,0.00,WeatherDisplay:10.37,2013-04-20 02:09:00,
2013-04-19 19:10:00,57.7,36.0,29.83,SE,135,4.9,8.1,44,0.00,CLR,,0.00,WeatherDisplay:10.37,2013-04-20 02:10:00,
2013-04-19 19:13:00,57.7,36.0,29.83,SE,135,4.9,8.1,44,0.00,CLR,,0.00,WeatherDisplay:10.37,2013-04-20 02:13:00,
2013-04-19 19:14:00,57.7,36.0,29.83,SE,135,4.9,8.1,44,0.00,CLR,,0.00,WeatherDisplay:10.37,2013-04-20 02:14:00,
2013-04-19 19:15:00,57.7,36.0,29.83,SE,135,4.9,8.1,44,0.00,CLR,,0.00,WeatherDisplay:10.37,2013-04-20 02:15:00,
2013-04-19 19:16:00,57.7,36.0,29.83,SE,135,4.9,8.1,44,0.00,CLR,,0.00,WeatherDisplay:10.37,2013-04-20 02:16:00,
2013-04-19 19:18:00,57.7,36.0,29.83,SE,135,4.9,8.1,44,0.00,CLR,,0.00,WeatherDisplay:10.37,2013-04-20 02:18:00,
2013-04-19 19:19:00,57.7,36.0,29.83,SE,135,4.9,8.1,44,0.00,CLR,,0.00,WeatherDisplay:10.37,2013-04-20 02:19:00,
2013-04-19 19:20:00,57.7,36.0,29.83,SE,135,5.0,8.0,44,0.00,CLR,CLR,0.00,WeatherDisplay:10.37,2013-04-20 02:20:00,
2013-04-19 19:21:00,57.7,36.0,29.83,SE,135,4.9,8.1,44,0.00,CLR,,0.00,WeatherDisplay:10.37,2013-04-20 02:21:00,
2013-04-19 19:23:00,57.7,36.0,29.83,SE,135,4.9,8.1,44,0.00,CLR,,0.00,WeatherDisplay:10.37,2013-04-20 02:23:00,
2013-04-19 19:24:00,57.7,36.0,29.83,SE,135,4.9,8.1,44,0.00,CLR,,0.00,WeatherDisplay:10.37,2013-04-20 02:24:00,
2013-04-19 19:25:00,57.7,36.0,29.83,SE,135,4.9,8.1,44,0.00,CLR,,0.00,WeatherDisplay:10.37,2013-04-20 02:25:00,
2013-04-19 19:26:00,57.7,36.0,29.83,SE,135,4.9,8.1,44,0.00,CLR,,0.00,WeatherDisplay:10.37,2013-04-20 02:26:00,
2013-04-19 19:28:00,57.7,36.0,29.83,SE,135,4.9,8.1,44,0.00,CLR,,0.00,WeatherDisplay:10.37,2013-04-20 02:28:00,
2013-04-19 19:29:00,57.7,36.0,29.83,SE,135,4.9,8.1,44,0.00,CLR,,0.00,WeatherDisplay:10.37,2013-04-20 02:29:00,
2013-04-19 19:30:00,57.7,36.0,29.83,SE,135,4.9,8.1,44,0.00,CLR,,0.00,WeatherDisplay:10.37,2013-04-20 02:30:00,
2013-04-19 19:31:00,57.7,36.0,29.83,SE,135,4.9,8.1,44,0.00,CLR,,0.00,WeatherDisplay:10.37,2013-04-20 02:31:00,
2013-04-19 19:34:00,57.7,36.0,29.83,SE,135,4.9,8.1,44,0.00,CLR,,0.00,WeatherDisplay:10.37,2013-04-20 02:34:00,
2013-04-19 19:35:00,57.7,36.0,29.83,SE,135,4.9,8.1,44,0.00,CLR,,0.00,WeatherDisplay:10.37,2013-04-20 02:35:00,
2013-04-19 19:36:00,57.7,36.0,29.83,SE,135,4.9,8.1,44,0.00,CLR,,0.00,WeatherDisplay:10.37,2013-04-20 02:36:00,
2013-04-19 19:39:00,57.7,36.0,29.83,SE,135,4.9,8.1,44,0.00,CLR,,0.00,WeatherDisplay:10.37,2013-04-20 02:39:00,
2013-04-19 19:40:00,57.7,36.0,29.83,SE,135,4.9,8.1,44,0.00,CLR,,0.00,WeatherDisplay:10.37,2013-04-20 02:40:00,
2013-04-19 19:41:00,57.7,36.0,29.83,SE,135,4.9,8.1,44,0.00,CLR,,0.00,WeatherDisplay:10.37,2013-04-20 02:41:00,
2013-04-19 19:44:00,57.7,36.0,29.83,SE,135,4.9,8.1,44,0.00,CLR,,0.00,WeatherDisplay:10.37,2013-04-20 02:44:00,
2013-04-19 19:45:00,57.7,36.0,29.83,SE,135,4.9,8.1,44,0.00,CLR,,0.00,WeatherDisplay:10.37,2013-04-20 02:45:00,
2013-04-19 19:46:00,57.7,36.0,29.83,SE,135,4.9,8.1,44,0.00,CLR,,0.00,WeatherDisplay:10.37,2013-04-20 02:46:00,
2013-04-19 19:49:00,57.7,36.0,29.83,SE,135,4.9,8.1,44,0.00,CLR,,0.00,WeatherDisplay:10.37,2013-04-20 02:49:00,
2013-04-19 19:50:00,57.7,36.0,29.83,SE,135,4.9,8.1,44,0.00,CLR,,0.00,WeatherDisplay:10.37,2013-04-20 02:50:00,
2013-04-19 19:51:00,57.7,36.0,29.83,SE,135,4.9,8.1,44,0.00,CLR,,0.00,WeatherDisplay:10.37,2013-04-20 02:51:00,
2013-04-19 19:52:00,57.7,36.0,29.83,SE,135,4.9,8.1,44,0.00,CLR,,0.00,WeatherDisplay:10.37,2013-04-20 02:52:00,
2013-04-19 19:54:00,57.7,36.0,29.83,SE,135,4.9,8.1,44,0.00,CLR,,0.00,WeatherDisplay:10.37,2013-04-20 02:54:00,
2013-04-19 19:55:00,57.7,36.0,29.83,SE,135,4.9,8.1,44,0.00,CLR,,0.00,WeatherDisplay:10.37,2013-04-20 02:55:00,
2013-04-19 19:56:00,57.7,36.0,29.83,SE,135,4.9,8.1,44,0.00,CLR,,0.00,WeatherDisplay:10.37,2013-04-20 02:56:00,
2013-04-19 19:58:00,57.7,36.0,29.83,SE,135,4.9,8.1,44,0.00,CLR,,0.00,WeatherDisplay:10.37,2013-04-20 02:58:00,
2013-04-19 20:00:00,57.7,36.0,29.83,SE,135,4.9,8.1,44,0.00,CLR,,0.00,WeatherDisplay:10.37,2013-04-20 03:00:00,
2013-04-19 20:01:00,57.7,36.0,29.83,SE,135,4.9,8.1,44,0.00,CLR,,0.00,WeatherDisplay:10.37,2013-04-20 03:01:00,
2013-04-19 20:03:00,57.7,36.0,29.83,SE,135,4.9,8.1,44,0.00,CLR,,0.00,WeatherDisplay:10.37,2013-04-20 03:03:00,
2013-04-19 20:05:00,57.7,36.0,29.83,SE,135,5.0,8.0,44,0.00,CLR,CLR,0.00,WeatherDisplay:10.37,2013-04-20 03:05:00,
2013-04-19 20:06:00,57.7,36.0,29.83,SE,135,4.9,8.1,44,0.00,CLR,,0.00,WeatherDisplay:10.37,2013-04-20 03:06:00,
2013-04-19 20:09:00,57.7,36.0,29.83,SE,135,4.9,8.1,44,0.00,CLR,,0.00,WeatherDisplay:10.37,2013-04-20 03:09:00,
2013-04-19 20:10:00,57.7,36.0,29.83,SE,135,4.9,8.1,44,0.00,CLR,,0.00,WeatherDisplay:10.37,2013-04-20 03:10:00,
2013-04-19 20:11:00,57.7,36.0,29.83,SE,135,4.9,8.1,44,0.00,CLR,,0.00,WeatherDisplay:10.37,2013-04-20 03:11:00,
2013-04-19 20:12:00,57.7,36.0,29.83,SE,135,4.9,8.1,44,0.00,CLR,,0.00,WeatherDisplay:10.37,2013-04-20 03:12:00,
2013-04-19 20:14:00,57.7,36.0,29.83,SE,135,4.9,8.1,44,0.00,CLR,,0.00,WeatherDisplay:10.37,2013-04-20 03:14:00,
2013-04-19 20:15:00,57.7,36.0,29.83,SE,135,4.9,8.1,44,0.00,CLR,,0.00,WeatherDisplay:10.37,2013-04-20 03:15:00,
2013-04-19 20:16:00,57.7,36.0,29.83,SE,135,4.9,8.1,44,0.00,CLR,,0.00,WeatherDisplay:10.37,2013-04-20 03:16:00,
2013-04-19 20:17:00,57.7,36.0,29.83,SE,135,4.9,8.1,44,0.00,CLR,,0.00,WeatherDisplay:10.37,2013-04-20 03:17:00,
2013-04-19 20:19:00,57.7,36.0,29.83,SE,135,4.9,8.1,44,0.00,CLR,,0.00,WeatherDisplay:10.37,2013-04-20 03:19:00,
2013-04-19 20:20:00,57.7,36.0,29.83,SE,135,4.9,8.1,44,0.00,CLR,,0.00,WeatherDisplay:10.37,2013-04-20 03:20:00,
2013-04-19 20:21:00,57.7,36.0,29.83,SE,135,4.9,8.1,44,0.00,CLR,,0.00,WeatherDisplay:10.37,2013-04-20 03:21:00,
2013-04-19 20:22:00,57.7,36.0,29.83,SE,135,4.9,8.1,44,0.00,CLR,,0.00,WeatherDisplay:10.37,2013-04-20 03:22:00,
2013-04-19 20:24:00,57.7,36.0,29.83,SE,135,4.9,8.1,44,0.00,CLR,,0.00,WeatherDisplay:10.37,2013-04-20 03:24:00,
2013-04-19 20:25:00,57.7,36.0,29.83,SE,135,4.9,8.1,44,0.00,CLR,,0.00,WeatherDisplay:10.37,2013-04-20 03:25:00,
2013-04-19 20:26:00,57.7,36.0,29.83,SE,135,4.9,8.1,44,0.00,CLR,,0.00,WeatherDisplay:10.37,2013-04-20 03:26:00,
2013-04-19 20:28:00,57.7,36.0,29.83,SE,135,4.9,8.1,44,0.00,CLR,,0.00,WeatherDisplay:10.37,2013-04-20 03:28:00,
2013-04-19 20:29:00,57.7,36.0,29.83,SE,135,4.9,8.1,44,0.00,CLR,,0.00,WeatherDisplay:10.37,2013-04-20 03:29:00,
2013-04-19 20:30:00,57.7,36.0,29.83,SE,135,4.9,8.1,44,0.00,CLR,,0.00,WeatherDisplay:10.37,2013-04-20 03:30:00,
2013-04-19 20:31:00,57.7,36.0,29.83,SE,135,4.9,8.1,44,0.00,CLR,,0.00,WeatherDisplay:10.37,2013-04-20 03:31:00,
2013-04-19 20:32:00,57.7,36.0,29.83,SE,135,4.9,8.1,44,0.00,CLR,,0.00,WeatherDisplay:10.37,2013-04-20 03:32:00,
2013-04-19 20:33:00,57.7,36.0,29.83,SE,135,4.9,8.1,44,0.00,CLR,,0.00,WeatherDisplay:10.37,2013-04-20 03:33:00,
2013-04-19 20:35:00,57.7,36.0,29.83,SE,135,4.9,8.1,44,0.00,CLR,,0.00,WeatherDisplay:10.37,2013-04-20 03:35:00,
2013-04-19 20:36:00,57.7,36.0,29.83,SE,135,4.9,8.1,44,0.00,CLR,,0.00,WeatherDisplay:10.37,2013-04-20 03:36:00,
2013-04-19 20:37:00,57.7,36.0,29.83,SE,135,4.9,8.1,44,0.00,CLR,,0.00,WeatherDisplay:10.37,2013-04-20 03:37:00,
2013-04-19 20:38:00,57.7,36.0,29.83,SE,135,4.9,8.1,44,0.00,CLR,,0.00,WeatherDisplay:10.37,2013-04-20 03:38:00,
2013-04-19 20:40:00,57.7,36.0,29.83,SE,135,5.0,8.0,44,0.00,CLR,CLR,0.00,WeatherDisplay:10.37,2013-04-20 03:40:00,
2013-04-19 20:42:00,57.7,36.0,29.83,SE,135,4.9,8.1,44,0.00,CLR,,0.00,WeatherDisplay:10.37,2013-04-20 03:42:00,
2013-04-19 20:43:00,57.7,36.0,29.83,SE,135,4.9,8.1,44,0.00,CLR,,0.00,WeatherDisplay:10.37,2013-04-20 03:43:00,
2013-04-19 20:45:00,57.7,36.0,29.83,SE,135,4.9,8.1,44,0.00,CLR,,0.00,WeatherDisplay:10.37,2013-04-20 03:45:00,
2013-04-19 20:46:00,57.7,36.0,29.83,SE,135,4.9,8.1,44,0.00,CLR,,0.00,WeatherDisplay:10.37,2013-04-20 03:46:00,
2013-04-19 20:47:00,57.7,36.0,29.83,SE,135,4.9,8.1,44,0.00,CLR,,0.00,WeatherDisplay:10.37,2013-04-20 03:47:00,
2013-04-19 20:49:00,57.7,36.0,29.83,SE,135,4.9,8.1,44,0.00,CLR,,0.00,WeatherDisplay:10.37,2013-04-20 03:49:00,
2013-04-19 20:50:00,57.7,36.0,29.83,SE,135,5.0,8.0,44,0.00,CLR,CLR,0.00,WeatherDisplay:10.37,2013-04-20 03:50:00,
2013-04-19 20:51:00,57.7,36.0,29.83,SE,135,4.9,8.1,44,0.00,CLR,,0.00,WeatherDisplay:10.37,2013-04-20 03:51:00,
2013-04-19 20:52:00,57.7,36.0,29.83,SE,135,4.9,8.1,44,0.00,CLR,,0.00,WeatherDisplay:10.37,2013-04-20 03:52:00,
2013-04-19 20:53:00,57.7,36.0,29.83,SE,135,4.9,8.1,44,0.00,CLR,,0.00,WeatherDisplay:10.37,2013-04-20 03:53:00,
2013-04-19 20:54:00,57.7,36.0,29.83,SE,135,4.9,8.1,44,0.00,CLR,,0.00,WeatherDisplay:10.37,2013-04-20 03:54:00,
2013-04-19 20:55:00,57.7,36.0,29.83,SE,135,4.9,8.1,44,0.00,CLR,,0.00,WeatherDisplay:10.37,2013-04-20 03:55:00,
2013-04-19 20:56:00,57.7,36.0,29.83,SE,135,4.9,8.1,44,0.00,CLR,,0.00,WeatherDisplay:10.37,2013-04-20 03:56:00,
2013-04-19 20:57:00,57.7,36.0,29.83,SE,135,4.9,8.1,44,0.00,CLR,,0.00,WeatherDisplay:10.37,2013-04-20 03:57:00,
2013-04-19 20:58:00,57.7,36.0,29.83,SE,135,4.9,8.1,44,0.00,CLR,,0.00,WeatherDisplay:10.37,2013-04-20 03:58:00,
2013-04-19 20:59:00,57.7,36.0,29.83,SE,135,4.9,8.1,44,0.00,CLR,,0.00,WeatherDisplay:10.37,2013-04-20 03:59:00,
2013-04-19 21:00:00,57.7,36.0,29.83,SE,135,5.0,8.0,44,0.00,CLR,CLR,0.00,WeatherDisplay:10.37,2013-04-20 04:00:00,
2013-04-19 21:01:00,57.7,36.0,29.83,SE,135,4.9,8.1,44,0.00,CLR,,0.00,WeatherDisplay:10.37,2013-04-20 04:01:00,
2013-04-19 21:06:00,57.7,36.0,29.83,SE,135,4.9,8.1,44,0.00,CLR,,0.00,WeatherDisplay:10.37,2013-04-20 04:06:00,
2013-04-19 21:11:00,57.7,36.0,29.83,SE,135,4.9,8.1,44,0.00,CLR,,0.00,WeatherDisplay:10.37,2013-04-20 04:11:00,
2013-04-19 21:12:00,57.7,36.0,29.83,SE,135,4.9,8.1,44,0.00,CLR,,0.00,WeatherDisplay:10.37,2013-04-20 04:12:00,
2013-04-19 21:16:00,57.7,36.0,29.83,SE,135,4.9,8.1,44,0.00,CLR,,0.00,WeatherDisplay:10.37,2013-04-20 04:16:00,
2013-04-19 21:17:00,57.7,36.0,29.83,SE,135,4.9,8.1,44,0.00,CLR,,0.00,WeatherDisplay:10.37,2013-04-20 04:17:00,
2013-04-19 21:21:00,57.7,36.0,29.83,SE,135,4.9,8.1,44,0.00,CLR,,0.00,WeatherDisplay:10.37,2013-04-20 04:21:00,
2013-04-19 21:22:00,57.7,36.0,29.83,SE,135,4.9,8.1,44,0.00,CLR,,0.00,WeatherDisplay:10.37,2013-04-20 04:22:00,
2013-04-19 21:26:00,57.7,36.0,29.83,SE,135,4.9,8.1,44,0.00,CLR,,0.00,WeatherDisplay:10.37,2013-04-20 04:26:00,
2013-04-19 21:27:00,57.7,36.0,29.83,SE,135,4.9,8.1,44,0.00,CLR,,0.00,WeatherDisplay:10.37,2013-04-20 04:27:00,
2013-04-19 21:31:00,57.7,36.0,29.83,SE,135,4.9,8.1,44,0.00,CLR,,0.00,WeatherDisplay:10.37,2013-04-20 04:31:00,
2013-04-19 21:32:00,57.7,36.0,29.83,SE,135,4.9,8.1,44,0.00,CLR,,0.00,WeatherDisplay:10.37,2013-04-20 04:32:00,
2013-04-19 21:36:00,57.7,36.0,29.83,SE,135,4.9,8.1,44,0.00,CLR,,0.00,WeatherDisplay:10.37,2013-04-20 04:36:00,
2013-04-19 21:37:00,57.7,36.0,29.83,SE,135,4.9,8.1,44,0.00,CLR,,0.00,WeatherDisplay:10.37,2013-04-20 04:37:00,
2013-04-19 21:38:00,57.7,36.0,29.83,SE,135,4.9,8.1,44,0.00,CLR,,0.00,WeatherDisplay:10.37,2013-04-20 04:38:00,
2013-04-19 21:41:00,57.7,36.0,29.83,SE,135,4.9,8.1,44,0.00,CLR,,0.00,WeatherDisplay:10.37,2013-04-20 04:41:00,
2013-04-19 21:42:00,57.7,36.0,29.83,SE,135,4.9,8.1,44,0.00,CLR,,0.00,WeatherDisplay:10.37,2013-04-20 04:42:00,
2013-04-19 21:43:00,57.7,36.0,29.83,SE,135,4.9,8.1,44,0.00,CLR,,0.00,WeatherDisplay:10.37,2013-04-20 04:43:00,
2013-04-19 21:44:00,57.7,36.0,29.83,SE,135,4.9,8.1,44,0.00,CLR,,0.00,WeatherDisplay:10.37,2013-04-20 04:44:00,
2013-04-19 21:46:00,57.7,36.0,29.83,SE,135,4.9,8.1,44,0.00,CLR,,0.00,WeatherDisplay:10.37,2013-04-20 04:46:00,
2013-04-19 21:47:00,57.7,36.0,29.83,SE,135,4.9,8.1,44,0.00,CLR,,0.00,WeatherDisplay:10.37,2013-04-20 04:47:00,
2013-04-19 21:48:00,57.7,36.0,29.83,SE,135,4.9,8.1,44,0.00,CLR,,0.00,WeatherDisplay:10.37,2013-04-20 04:48:00,
2013-04-19 21:49:00,57.7,36.0,29.83,SE,135,4.9,8.1,44,0.00,CLR,,0.00,WeatherDisplay:10.37,2013-04-20 04:49:00,
2013-04-19 21:51:00,57.7,36.0,29.83,SE,135,4.9,8.1,44,0.00,CLR,,0.00,WeatherDisplay:10.37,2013-04-20 04:51:00,
2013-04-19 21:52:00,57.7,36.0,29.83,SE,135,4.9,8.1,44,0.00,CLR,,0.00,WeatherDisplay:10.37,2013-04-20 04:52:00,
2013-04-19 21:53:00,57.7,36.0,29.83,SE,135,4.9,8.1,44,0.00,CLR,,0.00,WeatherDisplay:10.37,2013-04-20 04:53:00,
2013-04-19 21:54:00,57.7,36.0,29.83,SE,135,4.9,8.1,44,0.00,CLR,,0.00,WeatherDisplay:10.37,2013-04-20 04:54:00,
2013-04-19 21:57:00,57.7,36.0,29.83,SE,135,4.9,8.1,44,0.00,CLR,,0.00,WeatherDisplay:10.37,2013-04-20 04:57:00,
2013-04-19 21:58:00,57.7,36.0,29.83,SE,135,4.9,8.1,44,0.00,CLR,,0.00,WeatherDisplay:10.37,2013-04-20 04:58:00,
2013-04-19 21:59:00,57.7,36.0,29.83,SE,135,4.9,8.1,44,0.00,CLR,,0.00,WeatherDisplay:10.37,2013-04-20 04:59:00,
2013-04-19 22:00:00,57.7,36.0,29.83,SE,135,4.9,8.1,44,0.00,CLR,,0.00,WeatherDisplay:10.37,2013-04-20 05:00:00,
2013-04-19 22:02:00,57.7,36.0,29.83,SE,135,4.9,8.1,44,0.00,CLR,,0.00,WeatherDisplay:10.37,2013-04-20 05:02:00,
2013-04-19 22:03:00,57.7,36.0,29.83,SE,135,4.9,8.1,44,0.00,CLR,,0.00,WeatherDisplay:10.37,2013-04-20 05:03:00,
2013-04-19 22:04:00,57.7,36.0,29.83,SE,135,4.9,8.1,44,0.00,CLR,,0.00,WeatherDisplay:10.37,2013-04-20 05:04:00,
2013-04-19 22:05:00,57.7,36.0,29.83,SE,135,4.9,8.1,44,0.00,CLR,,0.00,WeatherDisplay:10.37,2013-04-20 05:05:00,
2013-04-19 22:07:00,57.7,36.0,29.83,SE,135,4.9,8.1,44,0.00,CLR,,0.00,WeatherDisplay:10.37,2013-04-20 05:07:00,
2013-04-19 22:08:00,57.7,36.0,29.83,SE,135,4.9,8.1,44,0.00,CLR,,0.00,WeatherDisplay:10.37,2013-04-20 05:08:00,
2013-04-19 22:09:00,57.7,36.0,29.83,SE,135,4.9,8.1,44,0.00,CLR,,0.00,WeatherDisplay:10.37,2013-04-20 05:09:00,
2013-04-19 22:11:00,57.7,36.0,29.83,SE,135,4.9,8.1,44,0.00,CLR,,0.00,WeatherDisplay:10.37,2013-04-20 05:11:00,
2013-04-19 22:13:00,57.7,36.0,29.83,SE,135,4.9,8.1,44,0.00,CLR,,0.00,WeatherDisplay:10.37,2013-04-20 05:13:00,
2013-04-19 22:14:00,57.7,36.0,29.83,SE,135,4.9,8.1,44,0.00,CLR,,0.00,WeatherDisplay:10.37,2013-04-20 05:14:00,
2013-04-19 22:16:00,57.7,36.0,29.83,SE,135,4.9,8.1,44,0.00,CLR,,0.00,WeatherDisplay:10.37,2013-04-20 05:16:00,
2013-04-19 22:18:00,57.7,36.0,29.83,SE,135,4.9,8.1,44,0.00,CLR,,0.00,WeatherDisplay:10.37,2013-04-20 05:18:00,
2013-04-19 22:19:00,57.7,36.0,29.83,SE,135,4.9,8.1,44,0.00,CLR,,0.00,WeatherDisplay:10.37,2013-04-20 05:19:00,
2013-04-19 22:21:00,57.7,36.0,29.83,SE,135,4.9,8.1,44,0.00,CLR,,0.00,WeatherDisplay:10.37,2013-04-20 05:21:00,
2013-04-19 22:23:00,57.7,36.0,29.83,SE,135,4.9,8.1,44,0.00,CLR,,0.00,WeatherDisplay:10.37,2013-04-20 05:23:00,
2013-04-19 22:24:00,57.7,36.0,29.83,SE,135,4.9,8.1,44,0.00,CLR,,0.00,WeatherDisplay:10.37,2013-04-20 05:24:00,
2013-04-19 22:26:00,57.7,36.0,29.83,SE,135,4.9,8.1,44,0.00,CLR,,0.00,WeatherDisplay:10.37,2013-04-20 05:26:00,
2013-04-19 22:28:00,57.7,36.0,29.83,SE,135,4.9,8.1,44,0.00,CLR,,0.00,WeatherDisplay:10.37,2013-04-20 05:28:00,
2013-04-19 22:29:00,57.7,36.0,29.83,SE,135,4.9,8.1,44,0.00,CLR,,0.00,WeatherDisplay:10.37,2013-04-20 05:29:00,
2013-04-19 22:32:00,57.7,36.0,29.83,SE,135,4.9,8.1,44,0.00,CLR,,0.00,WeatherDisplay:10.37,2013-04-20 05:32:00,
2013-04-19 22:33:00,57.7,36.0,29.83,SE,135,4.9,8.1,44,0.00,CLR,,0.00,WeatherDisplay:10.37,2013-04-20 05:33:00,
2013-04-19 22:34:00,57.7,36.0,29.83,SE,135,4.9,8.1,44,0.00,CLR,,0.00,WeatherDisplay:10.37,2013-04-20 05:34:00,
2013-04-19 22:35:00,57.7,36.0,29.83,SE,135,4.9,8.1,44,0.00,CLR,,0.00,WeatherDisplay:10.37,2013-04-20 05:35:00,
2013-04-19 22:37:00,57.7,36.0,29.83,SE,135,4.9,8.1,44,0.00,CLR,,0.00,WeatherDisplay:10.37,2013-04-20 05:37:00,
2013-04-19 22:39:00,57.7,36.0,29.83,SE,135,4.9,8.1,44,0.00,CLR,,0.00,WeatherDisplay:10.37,2013-04-20 05:39:00,
2013-04-19 22:40:00,57.7,36.0,29.83,SE,135,4.9,8.1,44,0.00,CLR,,0.00,WeatherDisplay:10.37,2013-04-20 05:40:00,
2013-04-19 22:42:00,57.7,36.0,29.83,SE,135,4.9,8.1,44,0.00,CLR,,0.00,WeatherDisplay:10.37,2013-04-20 05:42:00,
2013-04-19 22:44:00,57.7,36.0,29.83,SE,135,4.9,8.1,44,0.00,CLR,,0.00,WeatherDisplay:10.37,2013-04-20 05:44:00,
2013-04-19 22:45:00,57.7,36.0,29.83,SE,135,4.9,8.1,44,0.00,CLR,,0.00,WeatherDisplay:10.37,2013-04-20 05:45:00,
2013-04-19 22:46:00,57.7,36.0,29.83,SE,135,4.9,8.1,44,0.00,CLR,,0.00,WeatherDisplay:10.37,2013-04-20 05:46:00,
2013-04-19 22:47:00,57.7,36.0,29.83,SE,135,4.9,8.1,44,0.00,CLR,,0.00,WeatherDisplay:10.37,2013-04-20 05:47:00,
2013-04-19 22:49:00,57.7,36.0,29.83,SE,135,4.9,8.1,44,0.00,CLR,,0.00,WeatherDisplay:10.37,2013-04-20 05:49:00,
2013-04-19 22:50:00,57.7,36.0,29.83,SE,135,4.9,8.1,44,0.00,CLR,,0.00,WeatherDisplay:10.37,2013-04-20 05:50:00,
2013-04-19 22:51:00,57.7,36.0,29.83,SE,135,4.9,8.1,44,0.00,CLR,,0.00,WeatherDisplay:10.37,2013-04-20 05:51:00,
2013-04-19 22:53:00,57.7,36.0,29.83,SE,135,4.9,8.1,44,0.00,CLR,,0.00,WeatherDisplay:10.37,2013-04-20 05:53:00,
2013-04-19 22:54:00,57.7,36.0,29.83,SE,135,4.9,8.1,44,0.00,CLR,,0.00,WeatherDisplay:10.37,2013-04-20 05:54:00,
2013-04-19 22:55:00,57.7,36.0,29.83,SE,135,4.9,8.1,44,0.00,CLR,,0.00,WeatherDisplay:10.37,2013-04-20 05:55:00,
2013-04-19 22:56:00,57.7,36.0,29.83,SE,135,4.9,8.1,44,0.00,CLR,,0.00,WeatherDisplay:10.37,2013-04-20 05:56:00,
2013-04-19 22:58:00,57.7,36.0,29.83,SE,135,4.9,8.1,44,0.00,CLR,,0.00,WeatherDisplay:10.37,2013-04-20 05:58:00,